Time,TemperatureF,DewpointF,PressureIn,WindDirection,WindDirectionDegrees,WindSpeedMPH,WindSpeedGustMPH,Humidity,HourlyPrecipIn,Conditions,Clouds,dailyrainin,SoftwareType,DateUTC
2013-08-06 00:00:00,75.5,72.0,30.03,NNW,340,1.0,1.0,89,0.00,,,0.00,Wunderground v.1.15,2013-08-06 04:00:00,
2013-08-06 00:01:00,75.5,72.0,30.03,NW,310,0.0,1.0,89,0.00,,,0.00,Wunderground v.1.15,2013-08-06 04:01:00,
2013-08-06 00:02:00,75.4,72.3,30.03,NE,36,1.0,1.0,90,0.00,,,0.00,Wunderground v.1.15,2013-08-06 04:02:00,
2013-08-06 00:03:00,75.4,72.3,30.03,WNW,291,0.0,1.0,90,0.00,,,0.00,Wunderground v.1.15,2013-08-06 04:03:00,
2013-08-06 00:04:00,75.4,72.3,30.03,NNE,23,3.0,3.0,90,0.00,,,0.00,Wunderground v.1.15,2013-08-06 04:04:00,
2013-08-06 00:07:00,75.3,72.2,30.03,NNE,25,2.0,3.0,90,0.00,,,0.00,Wunderground v.1.15,2013-08-06 04:07:00,
2013-08-06 00:09:00,75.3,72.2,30.03,NE,38,1.0,3.0,90,0.00,,,0.00,Wunderground v.1.15,2013-08-06 04:09:00,
2013-08-06 00:11:00,75.3,72.2,30.03,NW,304,1.0,2.0,90,0.00,,,0.00,Wunderground v.1.15,2013-08-06 04:11:00,
2013-08-06 00:13:00,75.2,72.1,30.03,NNW,346,6.0,6.0,90,0.00,,,0.00,Wunderground v.1.15,2013-08-06 04:13:00,
2013-08-06 00:17:00,75.2,72.1,30.03,NNE,20,5.0,6.0,90,0.00,,,0.00,Wunderground v.1.15,2013-08-06 04:17:00,
2013-08-06 00:19:00,75.1,72.0,30.03,NE,38,1.0,6.0,90,0.00,,,0.00,Wunderground v.1.15,2013-08-06 04:19:00,
2013-08-06 00:20:00,75.1,72.0,30.03,North,9,2.0,3.0,90,0.00,,,0.00,Wunderground v.1.15,2013-08-06 04:20:00,
2013-08-06 00:24:00,75.0,72.2,30.03,NNE,25,2.0,3.0,91,0.00,,,0.00,Wunderground v.1.15,2013-08-06 04:24:00,
2013-08-06 00:25:00,75.0,72.2,30.03,NNE,25,0.0,3.0,91,0.00,,,0.00,Wunderground v.1.15,2013-08-06 04:25:00,
2013-08-06 00:26:00,74.9,72.1,30.03,NE,49,4.0,4.0,91,0.00,,,0.00,Wunderground v.1.15,2013-08-06 04:26:00,
2013-08-06 00:30:00,74.8,72.0,30.03,NNE,32,4.0,4.0,91,0.00,,,0.00,Wunderground v.1.15,2013-08-06 04:30:00,
2013-08-06 00:31:00,74.8,72.0,30.03,NW,308,3.0,4.0,91,0.00,,,0.00,Wunderground v.1.15,2013-08-06 04:31:00,
2013-08-06 00:32:00,74.8,72.0,30.03,NNW,328,1.0,4.0,91,0.00,,,0.00,Wunderground v.1.15,2013-08-06 04:32:00,
2013-08-06 00:33:00,74.8,72.0,30.03,North,11,3.0,4.0,91,0.00,,,0.00,Wunderground v.1.15,2013-08-06 04:33:00,
2013-08-06 00:35:00,74.7,71.9,30.03,NNE,25,1.0,4.0,91,0.00,,,0.00,Wunderground v.1.15,2013-08-06 04:35:00,
2013-08-06 00:37:00,74.7,71.9,30.03,NE,47,4.0,4.0,91,0.00,,,0.00,Wunderground v.1.15,2013-08-06 04:37:00,
2013-08-06 00:38:00,74.7,71.9,30.02,NNE,17,2.0,4.0,91,0.00,,,0.00,Wunderground v.1.15,2013-08-06 04:38:00,
2013-08-06 00:42:00,74.6,71.8,30.02,NW,319,0.0,2.0,91,0.00,,,0.00,Wunderground v.1.15,2013-08-06 04:42:00,
2013-08-06 00:43:00,74.6,71.8,30.02,NW,319,0.0,2.0,91,0.00,,,0.00,Wunderground v.1.15,2013-08-06 04:43:00,
2013-08-06 00:44:00,74.6,71.8,30.02,NE,44,5.0,5.0,91,0.00,,,0.00,Wunderground v.1.15,2013-08-06 04:44:00,
2013-08-06 00:45:00,74.5,71.7,30.02,NNW,340,1.0,5.0,91,0.00,,,0.00,Wunderground v.1.15,2013-08-06 04:45:00,
2013-08-06 00:47:00,74.5,71.7,30.02,NW,305,2.0,5.0,91,0.00,,,0.00,Wunderground v.1.15,2013-08-06 04:47:00,
2013-08-06 00:49:00,74.5,71.7,30.02,North,354,1.0,5.0,91,0.00,,,0.00,Wunderground v.1.15,2013-08-06 04:49:00,
2013-08-06 00:50:00,74.4,71.6,30.02,ENE,58,1.0,2.0,91,0.00,,,0.00,Wunderground v.1.15,2013-08-06 04:50:00,
2013-08-06 00:52:00,74.4,71.3,30.02,North,1,3.0,6.0,90,0.00,,,0.00,Wunderground v.1.15,2013-08-06 04:52:00,
2013-08-06 00:55:00,74.5,71.4,30.02,NNE,33,5.0,6.0,90,0.00,,,0.00,Wunderground v.1.15,2013-08-06 04:55:00,
2013-08-06 00:58:00,74.4,71.3,30.02,NNW,337,1.0,6.0,90,0.00,,,0.00,Wunderground v.1.15,2013-08-06 04:58:00,
2013-08-06 00:59:00,74.4,71.3,30.03,ESE,123,1.0,6.0,90,0.00,,,0.00,Wunderground v.1.15,2013-08-06 04:59:00,
2013-08-06 01:02:00,74.4,71.3,30.03,North,360,2.0,2.0,90,0.00,,,0.00,Wunderground v.1.15,2013-08-06 05:02:00,
2013-08-06 01:04:00,74.3,71.2,30.03,NNE,20,2.0,2.0,90,0.00,,,0.00,Wunderground v.1.15,2013-08-06 05:04:00,
2013-08-06 01:06:00,74.3,71.2,30.03,NE,36,2.0,2.0,90,0.00,,,0.00,Wunderground v.1.15,2013-08-06 05:06:00,
2013-08-06 01:10:00,74.2,71.1,30.03,North,11,0.0,1.0,90,0.00,,,0.00,Wunderground v.1.15,2013-08-06 05:10:00,
2013-08-06 01:11:00,74.2,71.1,30.03,NNE,12,0.0,1.0,90,0.00,,,0.00,Wunderground v.1.15,2013-08-06 05:11:00,
2013-08-06 01:12:00,74.1,71.0,30.03,NNE,12,0.0,1.0,90,0.00,,,0.00,Wunderground v.1.15,2013-08-06 05:12:00,
2013-08-06 01:14:00,74.0,71.2,30.03,NNE,30,2.0,2.0,91,0.00,,,0.00,Wunderground v.1.15,2013-08-06 05:14:00,
2013-08-06 01:16:00,74.0,71.2,30.03,NNE,30,1.0,2.0,91,0.00,,,0.00,Wunderground v.1.15,2013-08-06 05:16:00,
2013-08-06 01:18:00,74.0,71.2,30.03,North,11,3.0,3.0,91,0.00,,,0.00,Wunderground v.1.15,2013-08-06 05:18:00,
2013-08-06 01:20:00,73.9,70.8,30.03,NNE,19,5.0,5.0,90,0.00,,,0.00,Wunderground v.1.15,2013-08-06 05:20:00,
2013-08-06 01:21:00,73.9,70.8,30.03,NNE,33,4.0,5.0,90,0.00,,,0.00,Wunderground v.1.15,2013-08-06 05:21:00,
2013-08-06 01:26:00,73.9,70.8,30.03,ENE,58,3.0,6.0,90,0.00,,,0.00,Wunderground v.1.15,2013-08-06 05:26:00,
2013-08-06 01:27:00,73.9,70.8,30.03,North,352,2.0,6.0,90,0.00,,,0.00,Wunderground v.1.15,2013-08-06 05:27:00,
2013-08-06 01:29:00,73.9,70.8,30.03,NNE,20,1.0,6.0,90,0.00,,,0.00,Wunderground v.1.15,2013-08-06 05:29:00,
2013-08-06 01:32:00,73.9,70.8,30.04,NNW,330,1.0,3.0,90,0.00,,,0.00,Wunderground v.1.15,2013-08-06 05:32:00,
2013-08-06 01:34:00,73.9,70.8,30.03,NNE,26,3.0,3.0,90,0.00,,,0.00,Wunderground v.1.15,2013-08-06 05:34:00,
2013-08-06 01:35:00,73.9,70.8,30.03,NNW,346,0.0,3.0,90,0.00,,,0.00,Wunderground v.1.15,2013-08-06 05:35:00,
2013-08-06 01:36:00,73.8,70.7,30.03,North,11,4.0,4.0,90,0.00,,,0.00,Wunderground v.1.15,2013-08-06 05:36:00,
2013-08-06 01:38:00,73.8,70.7,30.03,NW,315,2.0,4.0,90,0.00,,,0.00,Wunderground v.1.15,2013-08-06 05:38:00,
2013-08-06 01:42:00,73.8,70.7,30.03,NNW,333,3.0,4.0,90,0.00,,,0.00,Wunderground v.1.15,2013-08-06 05:42:00,
2013-08-06 01:43:00,73.8,70.7,30.04,NNE,32,2.0,4.0,90,0.00,,,0.00,Wunderground v.1.15,2013-08-06 05:43:00,
2013-08-06 01:46:00,73.8,70.7,30.03,NE,55,1.0,4.0,90,0.00,,,0.00,Wunderground v.1.15,2013-08-06 05:46:00,
2013-08-06 01:47:00,73.8,70.7,30.03,NW,322,1.0,4.0,90,0.00,,,0.00,Wunderground v.1.15,2013-08-06 05:47:00,
2013-08-06 01:48:00,73.8,70.7,30.03,NW,325,1.0,4.0,90,0.00,,,0.00,Wunderground v.1.15,2013-08-06 05:48:00,
2013-08-06 01:52:00,73.7,70.6,30.03,NNE,23,2.0,3.0,90,0.00,,,0.00,Wunderground v.1.15,2013-08-06 05:52:00,
2013-08-06 01:53:00,73.7,70.6,30.03,NW,310,0.0,3.0,90,0.00,,,0.00,Wunderground v.1.15,2013-08-06 05:53:00,
2013-08-06 01:54:00,73.7,70.3,30.03,NNE,32,3.0,3.0,89,0.00,,,0.00,Wunderground v.1.15,2013-08-06 05:54:00,
2013-08-06 01:56:00,73.7,70.6,30.03,East,93,4.0,4.0,90,0.00,,,0.00,Wunderground v.1.15,2013-08-06 05:56:00,
2013-08-06 01:57:00,73.7,70.3,30.03,ENE,61,3.0,4.0,89,0.00,,,0.00,Wunderground v.1.15,2013-08-06 05:57:00,
2013-08-06 01:58:00,73.6,70.5,30.03,North,11,1.0,4.0,90,0.00,,,0.00,Wunderground v.1.15,2013-08-06 05:58:00,
2013-08-06 02:01:00,73.7,70.3,30.03,NE,36,2.0,3.0,89,0.00,,,0.00,Wunderground v.1.15,2013-08-06 06:01:00,
2013-08-06 02:02:00,73.7,70.3,30.03,NW,316,1.0,5.0,89,0.00,,,0.00,Wunderground v.1.15,2013-08-06 06:02:00,
2013-08-06 02:03:00,73.6,70.2,30.03,NE,41,1.0,5.0,89,0.00,,,0.00,Wunderground v.1.15,2013-08-06 06:03:00,
2013-08-06 02:06:00,73.6,70.2,30.03,NNW,343,1.0,6.0,89,0.00,,,0.00,Wunderground v.1.15,2013-08-06 06:06:00,
2013-08-06 02:07:00,73.7,70.3,30.03,North,358,1.0,6.0,89,0.00,,,0.00,Wunderground v.1.15,2013-08-06 06:07:00,
2013-08-06 02:08:00,73.7,70.3,30.03,North,351,1.0,6.0,89,0.00,,,0.00,Wunderground v.1.15,2013-08-06 06:08:00,
2013-08-06 02:11:00,73.7,70.3,30.03,NW,315,0.0,2.0,89,0.00,,,0.00,Wunderground v.1.15,2013-08-06 06:11:00,
2013-08-06 02:12:00,73.7,70.3,30.03,North,356,1.0,2.0,89,0.00,,,0.00,Wunderground v.1.15,2013-08-06 06:12:00,
2013-08-06 02:13:00,73.7,70.3,30.03,East,87,1.0,2.0,89,0.00,,,0.00,Wunderground v.1.15,2013-08-06 06:13:00,
2013-08-06 02:16:00,73.6,70.2,30.03,NNE,30,2.0,5.0,89,0.00,,,0.00,Wunderground v.1.15,2013-08-06 06:16:00,
2013-08-06 02:17:00,73.6,70.2,30.03,NNE,17,3.0,5.0,89,0.00,,,0.00,Wunderground v.1.15,2013-08-06 06:17:00,
2013-08-06 02:19:00,73.6,70.2,30.03,NNE,13,4.0,5.0,89,0.00,,,0.00,Wunderground v.1.15,2013-08-06 06:19:00,
2013-08-06 02:21:00,73.6,70.2,30.03,North,359,2.0,3.0,89,0.00,,,0.00,Wunderground v.1.15,2013-08-06 06:21:00,
2013-08-06 02:22:00,73.6,70.2,30.03,North,360,0.0,3.0,89,0.00,,,0.00,Wunderground v.1.15,2013-08-06 06:22:00,
2013-08-06 02:24:00,73.6,70.2,30.03,NNW,342,3.0,3.0,89,0.00,,,0.00,Wunderground v.1.15,2013-08-06 06:24:00,
2013-08-06 02:27:00,73.5,70.1,30.02,NE,34,3.0,4.0,89,0.00,,,0.00,Wunderground v.1.15,2013-08-06 06:27:00,
2013-08-06 02:29:00,73.5,70.1,30.02,NW,322,2.0,5.0,89,0.00,,,0.00,Wunderground v.1.15,2013-08-06 06:29:00,
2013-08-06 02:32:00,73.6,69.8,30.02,NNE,13,3.0,4.0,88,0.00,,,0.00,Wunderground v.1.15,2013-08-06 06:32:00,
2013-08-06 02:33:00,73.6,69.8,30.02,ENE,67,3.0,4.0,88,0.00,,,0.00,Wunderground v.1.15,2013-08-06 06:33:00,
2013-08-06 02:35:00,73.6,69.8,30.03,NNE,15,3.0,4.0,88,0.00,,,0.00,Wunderground v.1.15,2013-08-06 06:35:00,
2013-08-06 02:37:00,73.6,69.8,30.03,NE,44,4.0,6.0,88,0.00,,,0.00,Wunderground v.1.15,2013-08-06 06:37:00,
2013-08-06 02:38:00,73.6,69.8,30.03,NNW,335,2.0,6.0,88,0.00,,,0.00,Wunderground v.1.15,2013-08-06 06:38:00,
2013-08-06 02:40:00,73.6,69.8,30.03,NE,56,0.0,2.0,88,0.00,,,0.00,Wunderground v.1.15,2013-08-06 06:40:00,
2013-08-06 02:42:00,73.5,69.7,30.02,NNW,335,2.0,4.0,88,0.00,,,0.00,Wunderground v.1.15,2013-08-06 06:42:00,
2013-08-06 02:43:00,73.6,69.8,30.02,NW,322,1.0,4.0,88,0.00,,,0.00,Wunderground v.1.15,2013-08-06 06:43:00,
2013-08-06 02:46:00,73.5,69.7,30.02,North,356,2.0,4.0,88,0.00,,,0.00,Wunderground v.1.15,2013-08-06 06:46:00,
2013-08-06 02:47:00,73.5,69.7,30.02,NNW,341,1.0,4.0,88,0.00,,,0.00,Wunderground v.1.15,2013-08-06 06:47:00,
2013-08-06 02:48:00,73.5,69.7,30.02,NW,308,3.0,4.0,88,0.00,,,0.00,Wunderground v.1.15,2013-08-06 06:48:00,
2013-08-06 02:51:00,73.5,69.7,30.02,NNW,330,1.0,3.0,88,0.00,,,0.00,Wunderground v.1.15,2013-08-06 06:51:00,
2013-08-06 02:52:00,73.5,69.7,30.02,NNW,347,1.0,3.0,88,0.00,,,0.00,Wunderground v.1.15,2013-08-06 06:52:00,
2013-08-06 02:53:00,73.5,69.7,30.02,NW,315,1.0,3.0,88,0.00,,,0.00,Wunderground v.1.15,2013-08-06 06:53:00,
2013-08-06 02:56:00,73.5,69.7,30.02,NNE,18,1.0,5.0,88,0.00,,,0.00,Wunderground v.1.15,2013-08-06 06:56:00,
2013-08-06 02:58:00,73.5,69.7,30.02,North,349,1.0,5.0,88,0.00,,,0.00,Wunderground v.1.15,2013-08-06 06:58:00,
2013-08-06 03:02:00,73.4,69.6,30.02,NE,40,1.0,2.0,88,0.00,,,0.00,Wunderground v.1.15,2013-08-06 07:02:00,
2013-08-06 03:03:00,73.4,69.6,30.02,NNW,330,1.0,3.0,88,0.00,,,0.00,Wunderground v.1.15,2013-08-06 07:03:00,
2013-08-06 03:04:00,73.4,69.6,30.01,North,359,2.0,3.0,88,0.00,,,0.00,Wunderground v.1.15,2013-08-06 07:04:00,
2013-08-06 03:07:00,73.3,69.5,30.01,NNW,340,1.0,3.0,88,0.00,,,0.00,Wunderground v.1.15,2013-08-06 07:07:00,
2013-08-06 03:08:00,73.3,69.5,30.01,ENE,71,0.0,3.0,88,0.00,,,0.00,Wunderground v.1.15,2013-08-06 07:08:00,
2013-08-06 03:09:00,73.3,69.5,30.01,NW,311,1.0,4.0,88,0.00,,,0.00,Wunderground v.1.15,2013-08-06 07:09:00,
2013-08-06 03:12:00,73.3,69.5,30.01,NE,36,2.0,3.0,88,0.00,,,0.00,Wunderground v.1.15,2013-08-06 07:12:00,
2013-08-06 03:13:00,73.3,69.5,30.01,North,9,2.0,3.0,88,0.00,,,0.00,Wunderground v.1.15,2013-08-06 07:13:00,
2013-08-06 03:14:00,73.3,69.5,30.01,North,353,0.0,3.0,88,0.00,,,0.00,Wunderground v.1.15,2013-08-06 07:14:00,
2013-08-06 03:17:00,73.2,69.4,30.01,ENE,58,1.0,3.0,88,0.00,,,0.00,Wunderground v.1.15,2013-08-06 07:17:00,
2013-08-06 03:18:00,73.2,69.4,30.01,NNE,24,1.0,3.0,88,0.00,,,0.00,Wunderground v.1.15,2013-08-06 07:18:00,
2013-08-06 03:19:00,73.2,69.4,30.01,NNW,338,2.0,3.0,88,0.00,,,0.00,Wunderground v.1.15,2013-08-06 07:19:00,
2013-08-06 03:22:00,73.1,69.0,30.00,North,4,4.0,6.0,87,0.00,,,0.00,Wunderground v.1.15,2013-08-06 07:22:00,
2013-08-06 03:23:00,73.1,69.0,30.00,North,351,1.0,6.0,87,0.00,,,0.00,Wunderground v.1.15,2013-08-06 07:23:00,
2013-08-06 03:24:00,73.1,69.0,30.00,NNW,348,1.0,6.0,87,0.00,,,0.00,Wunderground v.1.15,2013-08-06 07:24:00,
2013-08-06 03:27:00,73.1,69.0,30.00,North,1,4.0,6.0,87,0.00,,,0.00,Wunderground v.1.15,2013-08-06 07:27:00,
2013-08-06 03:28:00,73.1,69.0,30.00,NNE,28,2.0,6.0,87,0.00,,,0.00,Wunderground v.1.15,2013-08-06 07:28:00,
2013-08-06 03:29:00,73.1,69.0,30.00,NE,35,2.0,6.0,87,0.00,,,0.00,Wunderground v.1.15,2013-08-06 07:29:00,
2013-08-06 03:33:00,73.1,69.0,30.00,NE,36,1.0,5.0,87,0.00,,,0.00,Wunderground v.1.15,2013-08-06 07:33:00,
2013-08-06 03:34:00,73.2,69.1,30.00,NE,46,1.0,5.0,87,0.00,,,0.00,Wunderground v.1.15,2013-08-06 07:34:00,
2013-08-06 03:38:00,73.1,69.0,30.00,NW,319,3.0,6.0,87,0.00,,,0.00,Wunderground v.1.15,2013-08-06 07:38:00,
2013-08-06 03:39:00,73.1,69.0,30.00,NNW,339,0.0,6.0,87,0.00,,,0.00,Wunderground v.1.15,2013-08-06 07:39:00,
2013-08-06 03:40:00,73.1,69.0,30.00,NNW,339,0.0,2.0,87,0.00,,,0.00,Wunderground v.1.15,2013-08-06 07:40:00,
2013-08-06 03:43:00,73.0,68.9,30.00,NNE,24,2.0,6.0,87,0.00,,,0.00,Wunderground v.1.15,2013-08-06 07:43:00,
2013-08-06 03:44:00,73.0,68.9,30.00,NNW,327,2.0,6.0,87,0.00,,,0.00,Wunderground v.1.15,2013-08-06 07:44:00,
2013-08-06 03:45:00,73.1,69.0,30.00,NNE,32,2.0,6.0,87,0.00,,,0.00,Wunderground v.1.15,2013-08-06 07:45:00,
2013-08-06 03:48:00,73.1,69.0,30.00,North,353,1.0,6.0,87,0.00,,,0.00,Wunderground v.1.15,2013-08-06 07:48:00,
2013-08-06 03:49:00,73.0,68.9,30.00,North,352,1.0,6.0,87,0.00,,,0.00,Wunderground v.1.15,2013-08-06 07:49:00,
2013-08-06 03:50:00,73.0,68.9,30.00,NE,50,2.0,4.0,87,0.00,,,0.00,Wunderground v.1.15,2013-08-06 07:50:00,
2013-08-06 03:51:00,73.0,68.9,30.00,NE,38,1.0,4.0,87,0.00,,,0.00,Wunderground v.1.15,2013-08-06 07:51:00,
2013-08-06 03:53:00,73.0,68.9,30.00,NW,304,4.0,6.0,87,0.00,,,0.00,Wunderground v.1.15,2013-08-06 07:53:00,
2013-08-06 03:54:00,73.0,68.9,30.00,NNW,340,2.0,6.0,87,0.00,,,0.00,Wunderground v.1.15,2013-08-06 07:54:00,
2013-08-06 03:55:00,73.0,68.9,30.00,NW,304,2.0,6.0,87,0.00,,,0.00,Wunderground v.1.15,2013-08-06 07:55:00,
2013-08-06 03:56:00,73.0,68.9,30.00,NNE,22,2.0,6.0,87,0.00,,,0.00,Wunderground v.1.15,2013-08-06 07:56:00,
2013-08-06 03:58:00,72.9,68.8,30.00,NW,315,2.0,6.0,87,0.00,,,0.00,Wunderground v.1.15,2013-08-06 07:58:00,
2013-08-06 04:00:00,72.9,68.8,30.00,NE,50,3.0,6.0,87,0.00,,,0.00,Wunderground v.1.15,2013-08-06 08:00:00,
2013-08-06 04:01:00,72.9,68.8,30.00,NW,312,2.0,3.0,87,0.00,,,0.00,Wunderground v.1.15,2013-08-06 08:01:00,
2013-08-06 04:04:00,72.8,69.0,30.00,NNW,330,1.0,3.0,88,0.00,,,0.00,Wunderground v.1.15,2013-08-06 08:04:00,
2013-08-06 04:05:00,72.8,69.0,30.00,North,3,4.0,6.0,88,0.00,,,0.00,Wunderground v.1.15,2013-08-06 08:05:00,
2013-08-06 04:06:00,72.7,68.9,30.00,North,6,0.0,6.0,88,0.00,,,0.00,Wunderground v.1.15,2013-08-06 08:06:00,
2013-08-06 04:09:00,72.7,68.9,30.00,NW,308,1.0,6.0,88,0.00,,,0.00,Wunderground v.1.15,2013-08-06 08:09:00,
2013-08-06 04:10:00,72.6,68.8,30.00,WNW,284,1.0,2.0,88,0.00,,,0.00,Wunderground v.1.15,2013-08-06 08:10:00,
2013-08-06 04:11:00,72.6,69.2,30.00,NNW,330,0.0,2.0,89,0.00,,,0.00,Wunderground v.1.15,2013-08-06 08:11:00,
2013-08-06 04:14:00,72.4,69.0,30.00,NW,319,1.0,4.0,89,0.00,,,0.00,Wunderground v.1.15,2013-08-06 08:14:00,
2013-08-06 04:15:00,72.4,69.0,30.00,NNE,33,2.0,4.0,89,0.00,,,0.00,Wunderground v.1.15,2013-08-06 08:15:00,
2013-08-06 04:16:00,72.4,69.0,30.00,NNE,32,0.0,4.0,89,0.00,,,0.00,Wunderground v.1.15,2013-08-06 08:16:00,
2013-08-06 04:19:00,72.3,68.9,30.00,North,351,1.0,4.0,89,0.00,,,0.00,Wunderground v.1.15,2013-08-06 08:19:00,
2013-08-06 04:20:00,72.2,68.8,30.00,NE,41,4.0,5.0,89,0.00,,,0.00,Wunderground v.1.15,2013-08-06 08:20:00,
2013-08-06 04:21:00,72.2,68.8,30.00,NE,40,3.0,5.0,89,0.00,,,0.00,Wunderground v.1.15,2013-08-06 08:21:00,
2013-08-06 04:24:00,72.2,69.1,30.00,NNE,15,1.0,5.0,90,0.00,,,0.00,Wunderground v.1.15,2013-08-06 08:24:00,
2013-08-06 04:25:00,72.1,69.0,30.00,NE,56,2.0,5.0,90,0.00,,,0.00,Wunderground v.1.15,2013-08-06 08:25:00,
2013-08-06 04:26:00,72.1,69.0,30.00,NE,55,2.0,5.0,90,0.00,,,0.00,Wunderground v.1.15,2013-08-06 08:26:00,
2013-08-06 04:27:00,72.1,69.0,30.00,ENE,73,0.0,5.0,90,0.00,,,0.00,Wunderground v.1.15,2013-08-06 08:27:00,
2013-08-06 04:29:00,71.9,69.1,30.00,ESE,110,1.0,5.0,91,0.00,,,0.01,Wunderground v.1.15,2013-08-06 08:29:00,
2013-08-06 04:30:00,71.8,69.0,30.00,ESE,110,1.0,1.0,91,0.00,,,0.01,Wunderground v.1.15,2013-08-06 08:30:00,
2013-08-06 04:31:00,71.8,69.0,30.00,ESE,110,1.0,1.0,91,0.00,,,0.01,Wunderground v.1.15,2013-08-06 08:31:00,
2013-08-06 04:32:00,71.7,68.9,30.00,ESE,110,0.0,1.0,91,0.14,,,0.02,Wunderground v.1.15,2013-08-06 08:32:00,
2013-08-06 04:35:00,71.6,69.2,30.00,SE,142,0.0,1.0,92,0.66,,,0.04,Wunderground v.1.15,2013-08-06 08:35:00,
2013-08-06 04:36:00,71.6,69.2,30.01,SE,142,0.0,1.0,92,0.58,,,0.04,Wunderground v.1.15,2013-08-06 08:36:00,
2013-08-06 04:38:00,71.5,69.1,30.00,South,183,2.0,2.0,92,0.32,,,0.06,Wunderground v.1.15,2013-08-06 08:38:00,
2013-08-06 04:40:00,71.3,69.2,30.00,SE,137,0.0,1.0,93,0.23,,,0.07,Wunderground v.1.15,2013-08-06 08:40:00,
2013-08-06 04:41:00,71.3,69.2,30.00,SE,140,0.0,1.0,93,0.78,,,0.07,Wunderground v.1.15,2013-08-06 08:41:00,
2013-08-06 04:42:00,71.2,69.1,30.00,SE,140,0.0,1.0,93,0.53,,,0.08,Wunderground v.1.15,2013-08-06 08:42:00,
2013-08-06 04:43:00,71.2,69.4,30.01,SSE,166,1.0,3.0,94,0.28,,,0.08,Wunderground v.1.15,2013-08-06 08:43:00,
2013-08-06 04:45:00,71.1,69.3,30.01,SSW,200,1.0,4.0,94,0.24,,,0.09,Wunderground v.1.15,2013-08-06 08:45:00,
2013-08-06 04:46:00,71.0,69.2,30.01,SE,128,1.0,4.0,94,0.19,,,0.09,Wunderground v.1.15,2013-08-06 08:46:00,
2013-08-06 04:47:00,71.0,69.2,30.01,SSE,150,2.0,4.0,94,0.16,,,0.09,Wunderground v.1.15,2013-08-06 08:47:00,
2013-08-06 04:48:00,70.9,69.1,30.01,SE,145,2.0,4.0,94,0.16,,,0.10,Wunderground v.1.15,2013-08-06 08:48:00,
2013-08-06 04:50:00,70.8,69.3,30.01,ESE,102,3.0,3.0,95,0.43,,,0.12,Wunderground v.1.15,2013-08-06 08:50:00,
2013-08-06 04:51:00,70.8,69.3,30.01,SSW,193,2.0,4.0,95,0.43,,,0.12,Wunderground v.1.15,2013-08-06 08:51:00,
2013-08-06 04:52:00,70.7,69.2,30.01,SSW,201,3.0,4.0,95,1.24,,,0.13,Wunderground v.1.15,2013-08-06 08:52:00,
2013-08-06 04:53:00,70.7,69.2,30.01,SSW,212,3.0,4.0,95,1.41,,,0.16,Wunderground v.1.15,2013-08-06 08:53:00,
2013-08-06 04:56:00,70.6,69.1,30.01,SSE,150,0.0,4.0,95,0.31,,,0.18,Wunderground v.1.15,2013-08-06 08:56:00,
2013-08-06 04:57:00,70.6,69.1,30.01,SSE,150,0.0,4.0,95,0.31,,,0.18,Wunderground v.1.15,2013-08-06 08:57:00,
2013-08-06 04:58:00,70.5,69.0,30.01,ESE,114,1.0,4.0,95,0.20,,,0.18,Wunderground v.1.15,2013-08-06 08:58:00,
2013-08-06 05:01:00,70.5,69.0,30.01,SSW,209,1.0,2.0,95,3.18,,,0.21,Wunderground v.1.15,2013-08-06 09:01:00,
2013-08-06 05:02:00,70.5,69.0,30.01,SSW,212,1.0,2.0,95,0.69,,,0.21,Wunderground v.1.15,2013-08-06 09:02:00,
2013-08-06 05:03:00,70.5,69.0,30.01,SSE,158,2.0,2.0,95,0.61,,,0.22,Wunderground v.1.15,2013-08-06 09:03:00,
2013-08-06 05:06:00,70.5,69.0,30.01,SW,221,1.0,2.0,95,0.59,,,0.26,Wunderground v.1.15,2013-08-06 09:06:00,
2013-08-06 05:07:00,70.5,69.0,30.01,SW,221,1.0,2.0,95,0.86,,,0.26,Wunderground v.1.15,2013-08-06 09:07:00,
2013-08-06 05:08:00,70.5,69.0,30.01,SW,221,1.0,2.0,95,0.29,,,0.27,Wunderground v.1.15,2013-08-06 09:08:00,
2013-08-06 05:12:00,70.5,69.0,30.01,North,8,0.0,2.0,95,0.11,,,0.27,Wunderground v.1.15,2013-08-06 09:12:00,
2013-08-06 05:13:00,70.5,69.0,30.01,NW,319,1.0,2.0,95,0.10,,,0.27,Wunderground v.1.15,2013-08-06 09:13:00,
2013-08-06 05:14:00,70.5,69.3,30.00,NW,319,0.0,2.0,96,0.08,,,0.27,Wunderground v.1.15,2013-08-06 09:14:00,
2013-08-06 05:17:00,70.5,69.3,30.01,NW,319,0.0,2.0,96,0.06,,,0.27,Wunderground v.1.15,2013-08-06 09:17:00,
2013-08-06 05:18:00,70.5,69.3,30.01,NW,319,0.0,2.0,96,0.05,,,0.27,Wunderground v.1.15,2013-08-06 09:18:00,
2013-08-06 05:19:00,70.5,69.3,30.01,NW,319,0.0,2.0,96,0.05,,,0.27,Wunderground v.1.15,2013-08-06 09:19:00,
2013-08-06 05:22:00,70.5,69.3,30.01,NW,319,0.0,0.0,96,0.64,,,0.29,Wunderground v.1.15,2013-08-06 09:22:00,
2013-08-06 05:23:00,70.5,69.3,30.01,NW,319,0.0,0.0,96,0.55,,,0.29,Wunderground v.1.15,2013-08-06 09:23:00,
2013-08-06 05:24:00,70.5,69.3,30.01,NW,319,0.0,0.0,96,0.52,,,0.30,Wunderground v.1.15,2013-08-06 09:24:00,
2013-08-06 05:27:00,70.4,69.2,30.00,NW,319,0.0,0.0,96,0.19,,,0.31,Wunderground v.1.15,2013-08-06 09:27:00,
2013-08-06 05:28:00,70.4,69.2,30.00,NW,319,0.0,0.0,96,0.16,,,0.31,Wunderground v.1.15,2013-08-06 09:28:00,
2013-08-06 05:29:00,70.4,69.2,30.01,NW,319,0.0,0.0,96,0.16,,,0.32,Wunderground v.1.15,2013-08-06 09:29:00,
2013-08-06 05:32:00,70.4,69.2,30.01,NW,319,0.0,0.0,96,0.13,,,0.32,Wunderground v.1.15,2013-08-06 09:32:00,
2013-08-06 05:33:00,70.4,69.2,30.01,NW,319,0.0,0.0,96,0.12,,,0.32,Wunderground v.1.15,2013-08-06 09:33:00,
2013-08-06 05:35:00,70.4,69.2,30.00,NW,319,0.0,0.0,96,0.09,,,0.32,Wunderground v.1.15,2013-08-06 09:35:00,
2013-08-06 05:37:00,70.4,69.2,30.00,NW,319,0.0,0.0,96,0.06,,,0.32,Wunderground v.1.15,2013-08-06 09:37:00,
2013-08-06 05:38:00,70.4,69.2,30.00,NW,319,0.0,0.0,96,0.06,,,0.32,Wunderground v.1.15,2013-08-06 09:38:00,
2013-08-06 05:40:00,70.4,69.2,30.00,NW,319,0.0,0.0,96,0.05,,,0.32,Wunderground v.1.15,2013-08-06 09:40:00,
2013-08-06 05:42:00,70.4,69.2,30.00,NW,319,0.0,0.0,96,0.04,,,0.32,Wunderground v.1.15,2013-08-06 09:42:00,
2013-08-06 05:43:00,70.3,69.1,30.00,NW,319,0.0,0.0,96,0.04,,,0.33,Wunderground v.1.15,2013-08-06 09:43:00,
2013-08-06 05:45:00,70.4,69.2,30.00,NW,319,0.0,0.0,96,0.04,,,0.33,Wunderground v.1.15,2013-08-06 09:45:00,
2013-08-06 05:47:00,70.5,69.6,30.00,NNE,20,0.0,1.0,97,0.21,,,0.34,Wunderground v.1.15,2013-08-06 09:47:00,
2013-08-06 05:48:00,70.5,69.6,30.00,NNE,20,0.0,1.0,97,0.24,,,0.34,Wunderground v.1.15,2013-08-06 09:48:00,
2013-08-06 05:50:00,70.5,69.6,30.00,NNE,20,0.0,0.0,97,0.53,,,0.36,Wunderground v.1.15,2013-08-06 09:50:00,
2013-08-06 05:52:00,70.5,69.6,30.00,NNE,20,0.0,0.0,97,0.30,,,0.37,Wunderground v.1.15,2013-08-06 09:52:00,
2013-08-06 05:53:00,70.5,69.6,30.00,NNE,20,0.0,0.0,97,0.29,,,0.37,Wunderground v.1.15,2013-08-06 09:53:00,
2013-08-06 05:55:00,70.5,69.6,30.01,NNE,20,0.0,0.0,97,0.14,,,0.37,Wunderground v.1.15,2013-08-06 09:55:00,
2013-08-06 05:57:00,70.5,69.6,30.00,NNE,20,1.0,1.0,97,0.13,,,0.38,Wunderground v.1.15,2013-08-06 09:57:00,
2013-08-06 05:58:00,70.4,69.5,30.00,NNE,20,0.0,1.0,97,0.24,,,0.38,Wunderground v.1.15,2013-08-06 09:58:00,
2013-08-06 05:59:00,70.3,69.1,30.00,NNE,20,0.0,1.0,96,0.24,,,0.39,Wunderground v.1.15,2013-08-06 09:59:00,
2013-08-06 06:01:00,69.7,68.5,30.01,NNE,20,1.0,1.0,96,0.38,,,0.39,Wunderground v.1.15,2013-08-06 10:01:00,
2013-08-06 06:02:00,69.7,68.5,30.01,NNE,20,1.0,1.0,96,0.38,,,0.39,Wunderground v.1.15,2013-08-06 10:02:00,
2013-08-06 06:03:00,69.7,68.5,30.01,NNE,20,1.0,1.0,96,0.38,,,0.39,Wunderground v.1.15,2013-08-06 10:03:00,
2013-08-06 06:04:00,69.7,68.5,30.01,NNE,20,1.0,1.0,96,0.38,,,0.39,Wunderground v.1.15,2013-08-06 10:04:00,
2013-08-06 06:06:00,69.7,68.5,30.01,NNE,20,1.0,1.0,96,0.38,,,0.39,Wunderground v.1.15,2013-08-06 10:06:00,
2013-08-06 06:08:00,69.7,68.5,30.02,NNE,20,1.0,1.0,96,0.38,,,0.39,Wunderground v.1.15,2013-08-06 10:08:00,
2013-08-06 06:09:00,69.7,68.5,30.02,NNE,20,1.0,1.0,96,0.38,,,0.39,Wunderground v.1.15,2013-08-06 10:09:00,
2013-08-06 06:11:00,-999.9,-99.9,30.02,North,32767,-999.0,1.0,255,-99.99,,,0.39,Wunderground v.1.15,2013-08-06 10:11:00,
2013-08-06 06:13:00,-999.9,-99.9,30.02,North,32767,-999.0,1.0,255,-99.99,,,0.39,Wunderground v.1.15,2013-08-06 10:13:00,
2013-08-06 06:14:00,-999.9,-99.9,30.02,North,32767,-999.0,1.0,255,-99.99,,,0.39,Wunderground v.1.15,2013-08-06 10:14:00,
2013-08-06 06:15:00,-999.9,-99.9,30.02,North,32767,-999.0,1.0,255,-99.99,,,0.39,Wunderground v.1.15,2013-08-06 10:15:00,
2013-08-06 06:16:00,-999.9,-99.9,30.02,North,32767,-999.0,1.0,255,-99.99,,,0.39,Wunderground v.1.15,2013-08-06 10:16:00,
2013-08-06 06:18:00,-999.9,-99.9,30.01,North,32767,-999.0,1.0,255,-99.99,,,0.39,Wunderground v.1.15,2013-08-06 10:18:00,
2013-08-06 06:19:00,-999.9,-99.9,30.01,North,32767,-999.0,1.0,255,-99.99,,,0.39,Wunderground v.1.15,2013-08-06 10:19:00,
2013-08-06 06:20:00,-999.9,-99.9,30.01,North,32767,-999.0,-999.0,255,-99.99,,,0.39,Wunderground v.1.15,2013-08-06 10:20:00,
2013-08-06 06:21:00,-999.9,-99.9,30.01,North,32767,-999.0,-999.0,255,-99.99,,,0.39,Wunderground v.1.15,2013-08-06 10:21:00,
2013-08-06 06:23:00,-999.9,-99.9,30.02,North,32767,-999.0,-999.0,255,-99.99,,,0.39,Wunderground v.1.15,2013-08-06 10:23:00,
2013-08-06 06:24:00,-999.9,-99.9,30.01,North,32767,-999.0,-999.0,255,-99.99,,,0.39,Wunderground v.1.15,2013-08-06 10:24:00,
2013-08-06 06:25:00,-999.9,-99.9,30.01,North,32767,-999.0,-999.0,255,-99.99,,,0.39,Wunderground v.1.15,2013-08-06 10:25:00,
2013-08-06 06:26:00,-999.9,-99.9,30.02,North,32767,-999.0,-999.0,255,-99.99,,,0.39,Wunderground v.1.15,2013-08-06 10:26:00,
2013-08-06 06:28:00,-999.9,-99.9,30.02,North,32767,-999.0,-999.0,255,-99.99,,,0.39,Wunderground v.1.15,2013-08-06 10:28:00,
2013-08-06 06:29:00,-999.9,-99.9,30.02,North,32767,-999.0,-999.0,255,-99.99,,,0.39,Wunderground v.1.15,2013-08-06 10:29:00,
2013-08-06 06:30:00,-999.9,-99.9,30.02,North,32767,-999.0,-999.0,255,-99.99,,,0.39,Wunderground v.1.15,2013-08-06 10:30:00,
2013-08-06 06:32:00,-999.9,-99.9,30.02,North,32767,-999.0,-999.0,255,-99.99,,,0.39,Wunderground v.1.15,2013-08-06 10:32:00,
2013-08-06 06:33:00,-999.9,-99.9,30.02,North,32767,-999.0,-999.0,255,-99.99,,,0.39,Wunderground v.1.15,2013-08-06 10:33:00,
2013-08-06 06:34:00,-999.9,-99.9,30.02,North,32767,-999.0,-999.0,255,-99.99,,,0.39,Wunderground v.1.15,2013-08-06 10:34:00,
2013-08-06 06:35:00,-999.9,-99.9,30.02,North,32767,-999.0,-999.0,255,-99.99,,,0.39,Wunderground v.1.15,2013-08-06 10:35:00,
2013-08-06 06:36:00,-999.9,-99.9,30.02,North,32767,-999.0,-999.0,255,-99.99,,,0.39,Wunderground v.1.15,2013-08-06 10:36:00,
2013-08-06 06:37:00,-999.9,-99.9,30.02,North,32767,-999.0,-999.0,255,-99.99,,,0.39,Wunderground v.1.15,2013-08-06 10:37:00,
2013-08-06 06:38:00,-999.9,-99.9,30.02,North,32767,-999.0,-999.0,255,-99.99,,,0.39,Wunderground v.1.15,2013-08-06 10:38:00,
2013-08-06 06:40:00,-999.9,-99.9,30.02,North,32767,-999.0,-999.0,255,-99.99,,,0.39,Wunderground v.1.15,2013-08-06 10:40:00,
2013-08-06 06:41:00,-999.9,-99.9,30.02,North,32767,-999.0,-999.0,255,-99.99,,,0.39,Wunderground v.1.15,2013-08-06 10:41:00,
2013-08-06 06:42:00,-999.9,-99.9,30.02,North,32767,-999.0,-999.0,255,-99.99,,,0.39,Wunderground v.1.15,2013-08-06 10:42:00,
2013-08-06 06:43:00,-999.9,-99.9,30.02,North,32767,-999.0,-999.0,255,-99.99,,,0.39,Wunderground v.1.15,2013-08-06 10:43:00,
2013-08-06 06:45:00,-999.9,-99.9,30.02,North,32767,-999.0,-999.0,255,-99.99,,,0.39,Wunderground v.1.15,2013-08-06 10:45:00,
2013-08-06 06:46:00,-999.9,-99.9,30.02,North,32767,-999.0,-999.0,255,-99.99,,,0.39,Wunderground v.1.15,2013-08-06 10:46:00,
2013-08-06 06:47:00,-999.9,-99.9,30.02,North,32767,-999.0,-999.0,255,-99.99,,,0.39,Wunderground v.1.15,2013-08-06 10:47:00,
2013-08-06 06:49:00,-999.9,-99.9,30.03,North,32767,-999.0,-999.0,255,-99.99,,,0.39,Wunderground v.1.15,2013-08-06 10:49:00,
2013-08-06 06:50:00,-999.9,-99.9,30.03,North,32767,-999.0,-999.0,255,-99.99,,,0.39,Wunderground v.1.15,2013-08-06 10:50:00,
2013-08-06 06:51:00,-999.9,-99.9,30.03,North,32767,-999.0,-999.0,255,-99.99,,,0.39,Wunderground v.1.15,2013-08-06 10:51:00,
2013-08-06 06:52:00,-999.9,-99.9,30.03,North,32767,-999.0,-999.0,255,-99.99,,,0.39,Wunderground v.1.15,2013-08-06 10:52:00,
2013-08-06 06:53:00,-999.9,-99.9,30.03,North,32767,-999.0,-999.0,255,-99.99,,,0.39,Wunderground v.1.15,2013-08-06 10:53:00,
2013-08-06 06:54:00,-999.9,-99.9,30.03,North,32767,-999.0,-999.0,255,-99.99,,,0.39,Wunderground v.1.15,2013-08-06 10:54:00,
2013-08-06 06:55:00,-999.9,-99.9,30.03,North,32767,-999.0,-999.0,255,-99.99,,,0.39,Wunderground v.1.15,2013-08-06 10:55:00,
2013-08-06 06:56:00,-999.9,-99.9,30.03,North,32767,-999.0,-999.0,255,-99.99,,,0.39,Wunderground v.1.15,2013-08-06 10:56:00,
2013-08-06 06:57:00,-999.9,-99.9,30.03,North,32767,-999.0,-999.0,255,-99.99,,,0.39,Wunderground v.1.15,2013-08-06 10:57:00,
2013-08-06 06:58:00,-999.9,-99.9,30.03,North,32767,-999.0,-999.0,255,-99.99,,,0.39,Wunderground v.1.15,2013-08-06 10:58:00,
2013-08-06 06:59:00,-999.9,-99.9,30.03,North,32767,-999.0,-999.0,255,-99.99,,,0.39,Wunderground v.1.15,2013-08-06 10:59:00,
2013-08-06 07:00:00,-999.9,-99.9,30.03,North,32767,-999.0,-999.0,255,-99.99,,,0.39,Wunderground v.1.15,2013-08-06 11:00:00,
2013-08-06 07:01:00,-999.9,-99.9,30.03,North,32767,-999.0,-999.0,255,-99.99,,,0.39,Wunderground v.1.15,2013-08-06 11:01:00,
2013-08-06 07:02:00,-999.9,-99.9,30.03,North,32767,-999.0,-999.0,255,-99.99,,,0.39,Wunderground v.1.15,2013-08-06 11:02:00,
2013-08-06 07:03:00,-999.9,-99.9,30.03,North,32767,-999.0,-999.0,255,-99.99,,,0.39,Wunderground v.1.15,2013-08-06 11:03:00,
2013-08-06 07:04:00,-999.9,-99.9,30.03,North,32767,-999.0,-999.0,255,-99.99,,,0.39,Wunderground v.1.15,2013-08-06 11:04:00,
2013-08-06 07:05:00,-999.9,-99.9,30.03,North,32767,-999.0,-999.0,255,-99.99,,,0.39,Wunderground v.1.15,2013-08-06 11:05:00,
2013-08-06 07:06:00,-999.9,-99.9,30.03,North,32767,-999.0,-999.0,255,-99.99,,,0.39,Wunderground v.1.15,2013-08-06 11:06:00,
2013-08-06 07:07:00,-999.9,-99.9,30.03,North,32767,-999.0,-999.0,255,-99.99,,,0.39,Wunderground v.1.15,2013-08-06 11:07:00,
2013-08-06 07:08:00,-999.9,-99.9,30.03,North,32767,-999.0,-999.0,255,-99.99,,,0.39,Wunderground v.1.15,2013-08-06 11:08:00,
2013-08-06 07:09:00,-999.9,-99.9,30.03,North,32767,-999.0,-999.0,255,-99.99,,,0.39,Wunderground v.1.15,2013-08-06 11:09:00,
2013-08-06 07:10:00,-999.9,-99.9,30.03,North,32767,-999.0,-999.0,255,-99.99,,,0.39,Wunderground v.1.15,2013-08-06 11:10:00,
2013-08-06 07:11:00,-999.9,-99.9,30.03,North,32767,-999.0,-999.0,255,-99.99,,,0.39,Wunderground v.1.15,2013-08-06 11:11:00,
2013-08-06 07:12:00,-999.9,-99.9,30.03,North,32767,-999.0,-999.0,255,-99.99,,,0.39,Wunderground v.1.15,2013-08-06 11:12:00,
2013-08-06 07:13:00,-999.9,-99.9,30.03,North,32767,-999.0,-999.0,255,-99.99,,,0.39,Wunderground v.1.15,2013-08-06 11:13:00,
2013-08-06 07:15:00,-999.9,-99.9,30.03,North,32767,-999.0,-999.0,255,-99.99,,,0.39,Wunderground v.1.15,2013-08-06 11:15:00,
2013-08-06 07:16:00,-999.9,-99.9,30.03,North,32767,-999.0,-999.0,255,-99.99,,,0.39,Wunderground v.1.15,2013-08-06 11:16:00,
2013-08-06 07:18:00,-999.9,-99.9,30.03,North,32767,-999.0,-999.0,255,-99.99,,,0.39,Wunderground v.1.15,2013-08-06 11:18:00,
2013-08-06 07:20:00,-999.9,-99.9,30.03,North,32767,-999.0,-999.0,255,-99.99,,,0.39,Wunderground v.1.15,2013-08-06 11:20:00,
2013-08-06 07:21:00,-999.9,-99.9,30.03,North,32767,-999.0,-999.0,255,-99.99,,,0.39,Wunderground v.1.15,2013-08-06 11:21:00,
2013-08-06 07:23:00,-999.9,-99.9,30.03,North,32767,-999.0,-999.0,255,-99.99,,,0.39,Wunderground v.1.15,2013-08-06 11:23:00,
2013-08-06 07:25:00,-999.9,-99.9,30.03,North,32767,-999.0,-999.0,255,-99.99,,,0.39,Wunderground v.1.15,2013-08-06 11:25:00,
2013-08-06 07:26:00,-999.9,-99.9,30.03,North,32767,-999.0,-999.0,255,-99.99,,,0.39,Wunderground v.1.15,2013-08-06 11:26:00,
2013-08-06 07:27:00,-999.9,-99.9,30.03,North,32767,-999.0,-999.0,255,-99.99,,,0.39,Wunderground v.1.15,2013-08-06 11:27:00,
2013-08-06 07:28:00,-999.9,-99.9,30.03,North,32767,-999.0,-999.0,255,-99.99,,,0.39,Wunderground v.1.15,2013-08-06 11:28:00,
2013-08-06 07:29:00,-999.9,-99.9,30.03,North,32767,-999.0,-999.0,255,-99.99,,,0.39,Wunderground v.1.15,2013-08-06 11:29:00,
2013-08-06 07:30:00,-999.9,-99.9,30.03,North,32767,-999.0,-999.0,255,-99.99,,,0.39,Wunderground v.1.15,2013-08-06 11:30:00,
2013-08-06 07:31:00,-999.9,-99.9,30.03,North,32767,-999.0,-999.0,255,-99.99,,,0.39,Wunderground v.1.15,2013-08-06 11:31:00,
2013-08-06 07:32:00,-999.9,-99.9,30.03,North,32767,-999.0,-999.0,255,-99.99,,,0.39,Wunderground v.1.15,2013-08-06 11:32:00,
2013-08-06 07:33:00,-999.9,-99.9,30.03,North,32767,-999.0,-999.0,255,-99.99,,,0.39,Wunderground v.1.15,2013-08-06 11:33:00,
2013-08-06 07:35:00,-999.9,-99.9,30.03,North,32767,-999.0,-999.0,255,-99.99,,,0.39,Wunderground v.1.15,2013-08-06 11:35:00,
2013-08-06 07:36:00,-999.9,-99.9,30.03,North,32767,-999.0,-999.0,255,-99.99,,,0.39,Wunderground v.1.15,2013-08-06 11:36:00,
2013-08-06 07:37:00,-999.9,-99.9,30.03,North,32767,-999.0,-999.0,255,-99.99,,,0.39,Wunderground v.1.15,2013-08-06 11:37:00,
2013-08-06 07:38:00,-999.9,-99.9,30.03,North,32767,-999.0,-999.0,255,-99.99,,,0.39,Wunderground v.1.15,2013-08-06 11:38:00,
2013-08-06 07:40:00,-999.9,-99.9,30.03,North,32767,-999.0,-999.0,255,-99.99,,,0.39,Wunderground v.1.15,2013-08-06 11:40:00,
2013-08-06 07:41:00,-999.9,-99.9,30.03,North,32767,-999.0,-999.0,255,-99.99,,,0.39,Wunderground v.1.15,2013-08-06 11:41:00,
2013-08-06 07:42:00,-999.9,-99.9,30.03,North,32767,-999.0,-999.0,255,-99.99,,,0.39,Wunderground v.1.15,2013-08-06 11:42:00,
2013-08-06 07:43:00,-999.9,-99.9,30.04,North,32767,-999.0,-999.0,255,-99.99,,,0.39,Wunderground v.1.15,2013-08-06 11:43:00,
2013-08-06 07:45:00,70.2,69.6,30.03,North,349,0.0,1.0,98,0.00,,,0.39,Wunderground v.1.15,2013-08-06 11:45:00,
2013-08-06 07:46:00,70.1,69.5,30.03,NNW,348,0.0,1.0,98,0.00,,,0.39,Wunderground v.1.15,2013-08-06 11:46:00,
2013-08-06 07:47:00,70.2,69.6,30.03,NW,322,0.0,1.0,98,0.00,,,0.39,Wunderground v.1.15,2013-08-06 11:47:00,
2013-08-06 07:48:00,70.2,69.6,30.03,NW,321,0.0,1.0,98,0.00,,,0.39,Wunderground v.1.15,2013-08-06 11:48:00,
2013-08-06 07:50:00,70.3,69.7,30.03,NW,322,0.0,0.0,98,0.00,,,0.39,Wunderground v.1.15,2013-08-06 11:50:00,
2013-08-06 07:51:00,70.3,69.7,30.03,NW,322,0.0,0.0,98,0.00,,,0.39,Wunderground v.1.15,2013-08-06 11:51:00,
2013-08-06 07:52:00,70.3,69.7,30.03,NW,321,0.0,0.0,98,0.00,,,0.40,Wunderground v.1.15,2013-08-06 11:52:00,
2013-08-06 07:53:00,70.3,69.7,30.04,NW,321,0.0,0.0,98,0.00,,,0.40,Wunderground v.1.15,2013-08-06 11:53:00,
2013-08-06 07:55:00,70.4,69.8,30.04,NW,321,0.0,0.0,98,0.00,,,0.40,Wunderground v.1.15,2013-08-06 11:55:00,
2013-08-06 07:56:00,70.4,69.8,30.04,NW,321,0.0,0.0,98,0.00,,,0.40,Wunderground v.1.15,2013-08-06 11:56:00,
2013-08-06 07:57:00,70.4,69.8,30.04,NW,322,0.0,0.0,98,0.00,,,0.40,Wunderground v.1.15,2013-08-06 11:57:00,
2013-08-06 07:59:00,70.4,69.8,30.04,WNW,284,0.0,0.0,98,0.00,,,0.40,Wunderground v.1.15,2013-08-06 11:59:00,
2013-08-06 08:01:00,70.4,69.8,30.04,SW,218,0.0,0.0,98,0.00,,,0.40,Wunderground v.1.15,2013-08-06 12:01:00,
2013-08-06 08:02:00,70.4,69.8,30.04,SW,229,1.0,2.0,98,0.00,,,0.40,Wunderground v.1.15,2013-08-06 12:02:00,
2013-08-06 08:03:00,70.4,69.8,30.04,WSW,245,1.0,2.0,98,0.00,,,0.40,Wunderground v.1.15,2013-08-06 12:03:00,
2013-08-06 08:04:00,70.4,69.8,30.04,WSW,245,0.0,2.0,98,0.00,,,0.40,Wunderground v.1.15,2013-08-06 12:04:00,
2013-08-06 08:06:00,70.4,69.8,30.04,SW,227,0.0,2.0,98,0.00,,,0.40,Wunderground v.1.15,2013-08-06 12:06:00,
2013-08-06 08:07:00,70.4,69.8,30.04,SW,226,0.0,2.0,98,0.00,,,0.40,Wunderground v.1.15,2013-08-06 12:07:00,
2013-08-06 08:08:00,70.4,69.8,30.04,SW,227,2.0,2.0,98,0.00,,,0.40,Wunderground v.1.15,2013-08-06 12:08:00,
2013-08-06 08:09:00,70.4,69.8,30.04,WSW,238,1.0,2.0,98,0.00,,,0.40,Wunderground v.1.15,2013-08-06 12:09:00,
2013-08-06 08:11:00,70.4,69.8,30.04,WSW,238,0.0,1.0,98,0.00,,,0.40,Wunderground v.1.15,2013-08-06 12:11:00,
2013-08-06 08:12:00,70.4,69.8,30.04,WSW,238,0.0,1.0,98,0.00,,,0.40,Wunderground v.1.15,2013-08-06 12:12:00,
2013-08-06 08:13:00,70.4,69.8,30.04,WSW,238,0.0,1.0,98,0.00,,,0.40,Wunderground v.1.15,2013-08-06 12:13:00,
2013-08-06 08:15:00,70.4,69.8,30.05,WSW,238,0.0,1.0,98,0.00,,,0.40,Wunderground v.1.15,2013-08-06 12:15:00,
2013-08-06 08:17:00,70.4,69.8,30.05,WSW,238,0.0,1.0,98,0.00,,,0.40,Wunderground v.1.15,2013-08-06 12:17:00,
2013-08-06 08:18:00,70.5,69.9,30.05,WSW,238,0.0,1.0,98,0.00,,,0.40,Wunderground v.1.15,2013-08-06 12:18:00,
2013-08-06 08:20:00,70.5,69.9,30.05,WSW,238,0.0,0.0,98,0.00,,,0.40,Wunderground v.1.15,2013-08-06 12:20:00,
2013-08-06 08:22:00,70.5,69.9,30.05,WSW,238,0.0,0.0,98,0.00,,,0.40,Wunderground v.1.15,2013-08-06 12:22:00,
2013-08-06 08:23:00,70.5,69.9,30.05,WSW,238,0.0,0.0,98,0.00,,,0.40,Wunderground v.1.15,2013-08-06 12:23:00,
2013-08-06 08:25:00,70.5,69.9,30.05,WSW,238,0.0,0.0,98,1.43,,,0.43,Wunderground v.1.15,2013-08-06 12:25:00,
2013-08-06 08:27:00,70.5,69.9,30.05,WSW,238,0.0,0.0,98,0.45,,,0.44,Wunderground v.1.15,2013-08-06 12:27:00,
2013-08-06 08:28:00,70.5,69.9,30.05,WNW,297,0.0,0.0,98,0.24,,,0.44,Wunderground v.1.15,2013-08-06 12:28:00,
2013-08-06 08:30:00,70.5,69.9,30.05,North,11,1.0,1.0,98,0.13,,,0.44,Wunderground v.1.15,2013-08-06 12:30:00,
2013-08-06 08:33:00,70.5,69.9,30.05,North,11,0.0,1.0,98,0.08,,,0.44,Wunderground v.1.15,2013-08-06 12:33:00,
2013-08-06 08:36:00,70.5,69.9,30.05,NNE,12,0.0,1.0,98,0.06,,,0.44,Wunderground v.1.15,2013-08-06 12:36:00,
2013-08-06 08:38:00,70.5,69.9,30.05,North,11,0.0,1.0,98,0.06,,,0.45,Wunderground v.1.15,2013-08-06 12:38:00,
2013-08-06 08:39:00,70.5,69.9,30.05,North,11,0.0,1.0,98,0.06,,,0.45,Wunderground v.1.15,2013-08-06 12:39:00,
2013-08-06 08:41:00,70.6,70.0,30.06,North,11,0.0,0.0,98,0.06,,,0.45,Wunderground v.1.15,2013-08-06 12:41:00,
2013-08-06 08:43:00,70.6,70.0,30.05,North,11,0.0,0.0,98,0.06,,,0.45,Wunderground v.1.15,2013-08-06 12:43:00,
2013-08-06 08:44:00,70.6,70.0,30.05,NNE,12,0.0,0.0,98,0.06,,,0.45,Wunderground v.1.15,2013-08-06 12:44:00,
2013-08-06 08:46:00,70.6,70.0,30.05,NNE,12,0.0,0.0,98,0.06,,,0.45,Wunderground v.1.15,2013-08-06 12:46:00,
2013-08-06 08:48:00,70.6,70.0,30.05,North,11,0.0,0.0,98,0.05,,,0.45,Wunderground v.1.15,2013-08-06 12:48:00,
2013-08-06 08:49:00,70.6,70.0,30.05,North,11,0.0,0.0,98,0.05,,,0.45,Wunderground v.1.15,2013-08-06 12:49:00,
2013-08-06 08:52:00,70.6,70.0,30.05,NNE,12,0.0,0.0,98,0.04,,,0.45,Wunderground v.1.15,2013-08-06 12:52:00,
2013-08-06 08:53:00,70.6,70.0,30.05,North,11,0.0,0.0,98,0.00,,,0.45,Wunderground v.1.15,2013-08-06 12:53:00,
2013-08-06 08:54:00,70.7,70.1,30.05,North,11,0.0,0.0,98,0.00,,,0.45,Wunderground v.1.15,2013-08-06 12:54:00,
2013-08-06 08:57:00,70.6,70.0,30.06,North,11,0.0,0.0,98,0.00,,,0.46,Wunderground v.1.15,2013-08-06 12:57:00,
2013-08-06 08:58:00,70.6,70.0,30.05,WNW,294,0.0,0.0,98,3.22,,,0.50,Wunderground v.1.15,2013-08-06 12:58:00,
2013-08-06 08:59:00,70.6,70.0,30.05,WSW,238,0.0,0.0,98,3.22,,,0.50,Wunderground v.1.15,2013-08-06 12:59:00,
2013-08-06 09:00:00,70.6,70.0,30.05,WSW,248,2.0,2.0,98,0.64,,,0.52,Wunderground v.1.15,2013-08-06 13:00:00,
2013-08-06 09:02:00,70.6,70.0,30.05,WSW,248,0.0,2.0,98,2.82,,,0.62,Wunderground v.1.15,2013-08-06 13:02:00,
2013-08-06 09:03:00,70.6,70.0,30.05,NW,318,3.0,3.0,98,2.27,,,0.67,Wunderground v.1.15,2013-08-06 13:03:00,
2013-08-06 09:04:00,70.6,70.0,30.05,NW,318,1.0,3.0,98,2.37,,,0.67,Wunderground v.1.15,2013-08-06 13:04:00,
2013-08-06 09:05:00,70.6,70.0,30.05,NNW,327,0.0,3.0,98,0.71,,,0.69,Wunderground v.1.15,2013-08-06 13:05:00,
2013-08-06 09:08:00,70.5,69.9,30.05,NNW,342,0.0,3.0,98,0.37,,,0.71,Wunderground v.1.15,2013-08-06 13:08:00,
2013-08-06 09:09:00,70.5,69.9,30.05,NNW,341,0.0,3.0,98,0.28,,,0.71,Wunderground v.1.15,2013-08-06 13:09:00,
2013-08-06 09:10:00,70.5,69.9,30.05,NNW,342,0.0,1.0,98,0.69,,,0.73,Wunderground v.1.15,2013-08-06 13:10:00,
2013-08-06 09:13:00,70.5,69.9,30.06,NNW,342,0.0,1.0,98,0.25,,,0.74,Wunderground v.1.15,2013-08-06 13:13:00,
2013-08-06 09:14:00,70.5,69.9,30.06,NNW,342,0.0,1.0,98,0.19,,,0.74,Wunderground v.1.15,2013-08-06 13:14:00,
2013-08-06 09:15:00,70.6,70.0,30.06,NNW,341,0.0,1.0,98,0.14,,,0.74,Wunderground v.1.15,2013-08-06 13:15:00,
2013-08-06 09:18:00,70.6,70.0,30.06,NW,305,0.0,1.0,98,0.08,,,0.74,Wunderground v.1.15,2013-08-06 13:18:00,
2013-08-06 09:19:00,70.6,70.0,30.06,NW,305,0.0,1.0,98,0.07,,,0.74,Wunderground v.1.15,2013-08-06 13:19:00,
2013-08-06 09:21:00,70.6,70.0,30.06,NW,305,0.0,0.0,98,0.06,,,0.74,Wunderground v.1.15,2013-08-06 13:21:00,
2013-08-06 09:24:00,70.6,70.0,30.06,NW,304,0.0,1.0,98,0.05,,,0.74,Wunderground v.1.15,2013-08-06 13:24:00,
2013-08-06 09:25:00,70.6,70.0,30.06,NW,307,0.0,1.0,98,0.04,,,0.74,Wunderground v.1.15,2013-08-06 13:25:00,
2013-08-06 09:26:00,70.6,70.0,30.06,ENE,73,1.0,3.0,98,0.04,,,0.74,Wunderground v.1.15,2013-08-06 13:26:00,
2013-08-06 09:29:00,70.6,70.0,30.06,WNW,302,0.0,3.0,98,0.00,,,0.74,Wunderground v.1.15,2013-08-06 13:29:00,
2013-08-06 09:30:00,70.7,70.1,30.06,NNW,348,1.0,2.0,98,0.00,,,0.74,Wunderground v.1.15,2013-08-06 13:30:00,
2013-08-06 09:31:00,70.7,70.1,30.06,NNW,343,1.0,2.0,98,0.00,,,0.74,Wunderground v.1.15,2013-08-06 13:31:00,
2013-08-06 09:34:00,70.7,70.1,30.06,NNW,335,0.0,2.0,98,0.00,,,0.74,Wunderground v.1.15,2013-08-06 13:34:00,
2013-08-06 09:35:00,70.7,70.1,30.06,NNW,335,0.0,2.0,98,0.00,,,0.74,Wunderground v.1.15,2013-08-06 13:35:00,
2013-08-06 09:36:00,70.8,70.2,30.06,NNW,335,0.0,2.0,98,0.00,,,0.74,Wunderground v.1.15,2013-08-06 13:36:00,
2013-08-06 09:39:00,70.9,70.3,30.06,NNW,335,1.0,2.0,98,0.00,,,0.74,Wunderground v.1.15,2013-08-06 13:39:00,
2013-08-06 09:40:00,71.0,70.4,30.06,NNW,336,1.0,1.0,98,0.00,,,0.74,Wunderground v.1.15,2013-08-06 13:40:00,
2013-08-06 09:41:00,71.0,70.4,30.07,NNW,335,0.0,1.0,98,0.00,,,0.74,Wunderground v.1.15,2013-08-06 13:41:00,
2013-08-06 09:44:00,71.1,70.5,30.06,NNW,340,0.0,2.0,98,0.00,,,0.74,Wunderground v.1.15,2013-08-06 13:44:00,
2013-08-06 09:45:00,71.1,70.5,30.06,NNW,340,1.0,2.0,98,0.00,,,0.74,Wunderground v.1.15,2013-08-06 13:45:00,
2013-08-06 09:46:00,71.1,70.5,30.06,NNW,340,1.0,2.0,98,0.00,,,0.74,Wunderground v.1.15,2013-08-06 13:46:00,
2013-08-06 09:49:00,71.3,70.7,30.07,NNW,339,1.0,2.0,98,0.00,,,0.74,Wunderground v.1.15,2013-08-06 13:49:00,
2013-08-06 09:50:00,71.3,70.7,30.07,NNW,338,1.0,1.0,98,0.00,,,0.74,Wunderground v.1.15,2013-08-06 13:50:00,
2013-08-06 09:51:00,71.3,70.7,30.07,NNW,339,0.0,1.0,98,0.00,,,0.74,Wunderground v.1.15,2013-08-06 13:51:00,
2013-08-06 09:52:00,71.4,70.8,30.07,NNW,339,0.0,1.0,98,0.00,,,0.74,Wunderground v.1.15,2013-08-06 13:52:00,
2013-08-06 09:55:00,71.4,70.8,30.07,NW,317,0.0,1.0,98,0.00,,,0.74,Wunderground v.1.15,2013-08-06 13:55:00,
2013-08-06 09:56:00,71.5,70.9,30.07,NNW,345,0.0,1.0,98,0.00,,,0.74,Wunderground v.1.15,2013-08-06 13:56:00,
2013-08-06 09:57:00,71.5,70.9,30.07,NNW,343,0.0,1.0,98,0.00,,,0.74,Wunderground v.1.15,2013-08-06 13:57:00,
2013-08-06 10:00:00,71.5,70.9,30.07,NW,319,0.0,0.0,98,0.00,,,0.74,Wunderground v.1.15,2013-08-06 14:00:00,
2013-08-06 10:01:00,71.6,71.0,30.07,NW,319,0.0,0.0,98,0.00,,,0.74,Wunderground v.1.15,2013-08-06 14:01:00,
2013-08-06 10:02:00,71.6,71.0,30.07,NW,319,0.0,1.0,98,0.00,,,0.74,Wunderground v.1.15,2013-08-06 14:02:00,
2013-08-06 10:05:00,72.0,71.4,30.07,NW,319,0.0,1.0,98,0.00,,,0.74,Wunderground v.1.15,2013-08-06 14:05:00,
2013-08-06 10:06:00,72.1,71.5,30.07,NW,319,0.0,1.0,98,0.00,,,0.74,Wunderground v.1.15,2013-08-06 14:06:00,
2013-08-06 10:07:00,72.1,71.5,30.07,NW,319,0.0,1.0,98,0.00,,,0.74,Wunderground v.1.15,2013-08-06 14:07:00,
2013-08-06 10:10:00,72.1,71.5,30.07,WSW,242,1.0,1.0,98,0.00,,,0.74,Wunderground v.1.15,2013-08-06 14:10:00,
2013-08-06 10:12:00,72.1,71.5,30.07,WSW,240,1.0,1.0,98,0.00,,,0.74,Wunderground v.1.15,2013-08-06 14:12:00,
2013-08-06 10:13:00,71.9,71.0,30.07,SW,229,0.0,2.0,97,0.00,,,0.74,Wunderground v.1.15,2013-08-06 14:13:00,
2013-08-06 10:15:00,72.0,71.1,30.07,SW,233,0.0,2.0,97,0.00,,,0.74,Wunderground v.1.15,2013-08-06 14:15:00,
2013-08-06 10:16:00,72.0,71.1,30.07,SW,232,0.0,2.0,97,0.00,,,0.74,Wunderground v.1.15,2013-08-06 14:16:00,
2013-08-06 10:17:00,72.0,71.1,30.07,SW,231,0.0,2.0,97,0.00,,,0.74,Wunderground v.1.15,2013-08-06 14:17:00,
2013-08-06 10:18:00,72.1,71.2,30.07,SW,232,0.0,2.0,97,0.00,,,0.74,Wunderground v.1.15,2013-08-06 14:18:00,
2013-08-06 10:20:00,72.1,71.2,30.07,SW,232,0.0,0.0,97,0.00,,,0.74,Wunderground v.1.15,2013-08-06 14:20:00,
2013-08-06 10:21:00,72.1,71.2,30.07,SW,233,1.0,1.0,97,0.00,,,0.74,Wunderground v.1.15,2013-08-06 14:21:00,
2013-08-06 10:22:00,72.1,71.2,30.07,SW,233,0.0,1.0,97,0.00,,,0.74,Wunderground v.1.15,2013-08-06 14:22:00,
2013-08-06 10:23:00,72.1,71.2,30.07,SW,233,0.0,1.0,97,0.00,,,0.74,Wunderground v.1.15,2013-08-06 14:23:00,
2013-08-06 10:25:00,72.1,71.2,30.07,SW,233,0.0,1.0,97,0.00,,,0.74,Wunderground v.1.15,2013-08-06 14:25:00,
2013-08-06 10:26:00,72.1,71.2,30.07,SW,233,0.0,1.0,97,0.00,,,0.74,Wunderground v.1.15,2013-08-06 14:26:00,
2013-08-06 10:27:00,72.1,71.2,30.07,SW,233,0.0,1.0,97,0.00,,,0.74,Wunderground v.1.15,2013-08-06 14:27:00,
2013-08-06 10:29:00,72.1,71.2,30.07,SW,233,0.0,1.0,97,0.00,,,0.74,Wunderground v.1.15,2013-08-06 14:29:00,
2013-08-06 10:30:00,72.2,71.3,30.07,SW,233,0.0,1.0,97,0.00,,,0.74,Wunderground v.1.15,2013-08-06 14:30:00,
2013-08-06 10:31:00,72.2,71.3,30.07,WNW,287,1.0,1.0,97,0.00,,,0.74,Wunderground v.1.15,2013-08-06 14:31:00,
2013-08-06 10:32:00,72.2,71.3,30.07,NNW,327,1.0,2.0,97,0.00,,,0.74,Wunderground v.1.15,2013-08-06 14:32:00,
2013-08-06 10:34:00,72.2,71.3,30.07,NE,44,2.0,3.0,97,0.00,,,0.74,Wunderground v.1.15,2013-08-06 14:34:00,
2013-08-06 10:35:00,72.1,71.2,30.07,ENE,73,0.0,3.0,97,0.00,,,0.74,Wunderground v.1.15,2013-08-06 14:35:00,
2013-08-06 10:36:00,72.2,71.3,30.07,ENE,73,0.0,3.0,97,0.00,,,0.74,Wunderground v.1.15,2013-08-06 14:36:00,
2013-08-06 10:37:00,72.2,71.3,30.07,WSW,246,1.0,3.0,97,0.00,,,0.74,Wunderground v.1.15,2013-08-06 14:37:00,
2013-08-06 10:39:00,72.3,71.4,30.07,WSW,246,0.0,3.0,97,0.00,,,0.74,Wunderground v.1.15,2013-08-06 14:39:00,
2013-08-06 10:41:00,72.3,71.4,30.07,WSW,246,0.0,0.0,97,0.00,,,0.74,Wunderground v.1.15,2013-08-06 14:41:00,
2013-08-06 10:42:00,72.3,71.4,30.07,WSW,246,0.0,0.0,97,0.00,,,0.74,Wunderground v.1.15,2013-08-06 14:42:00,
2013-08-06 10:44:00,72.3,71.4,30.08,WSW,250,0.0,2.0,97,0.00,,,0.74,Wunderground v.1.15,2013-08-06 14:44:00,
2013-08-06 10:46:00,72.3,71.4,30.07,WSW,250,0.0,2.0,97,0.00,,,0.74,Wunderground v.1.15,2013-08-06 14:46:00,
2013-08-06 10:47:00,72.3,71.4,30.08,WSW,250,0.0,2.0,97,0.00,,,0.74,Wunderground v.1.15,2013-08-06 14:47:00,
2013-08-06 10:49:00,72.5,71.6,30.08,WSW,250,0.0,2.0,97,0.00,,,0.74,Wunderground v.1.15,2013-08-06 14:49:00,
2013-08-06 10:51:00,72.5,71.6,30.08,WSW,250,0.0,0.0,97,0.00,,,0.74,Wunderground v.1.15,2013-08-06 14:51:00,
2013-08-06 10:52:00,72.5,71.6,30.08,WSW,250,0.0,0.0,97,0.00,,,0.74,Wunderground v.1.15,2013-08-06 14:52:00,
2013-08-06 10:55:00,72.7,71.8,30.08,WSW,250,0.0,0.0,97,0.00,,,0.74,Wunderground v.1.15,2013-08-06 14:55:00,
2013-08-06 10:56:00,72.7,71.8,30.08,WSW,250,0.0,0.0,97,0.00,,,0.74,Wunderground v.1.15,2013-08-06 14:56:00,
2013-08-06 10:57:00,72.6,71.7,30.08,WSW,250,0.0,0.0,97,0.00,,,0.74,Wunderground v.1.15,2013-08-06 14:57:00,
2013-08-06 10:58:00,72.6,71.7,30.08,WSW,248,0.0,0.0,97,0.00,,,0.74,Wunderground v.1.15,2013-08-06 14:58:00,
2013-08-06 11:00:00,72.4,71.2,30.08,WSW,238,0.0,0.0,96,0.00,,,0.74,Wunderground v.1.15,2013-08-06 15:00:00,
2013-08-06 11:01:00,72.5,71.6,30.08,WSW,238,0.0,0.0,97,0.00,,,0.74,Wunderground v.1.15,2013-08-06 15:01:00,
2013-08-06 11:02:00,72.5,71.6,30.08,SW,236,1.0,1.0,97,0.00,,,0.74,Wunderground v.1.15,2013-08-06 15:02:00,
2013-08-06 11:03:00,72.5,71.6,30.08,WSW,238,1.0,1.0,97,0.00,,,0.74,Wunderground v.1.15,2013-08-06 15:03:00,
2013-08-06 11:05:00,72.6,71.7,30.08,WSW,238,0.0,1.0,97,0.00,,,0.74,Wunderground v.1.15,2013-08-06 15:05:00,
2013-08-06 11:06:00,72.7,71.8,30.08,SW,229,2.0,2.0,97,0.00,,,0.74,Wunderground v.1.15,2013-08-06 15:06:00,
2013-08-06 11:07:00,72.7,71.8,30.07,SW,229,1.0,2.0,97,0.00,,,0.74,Wunderground v.1.15,2013-08-06 15:07:00,
2013-08-06 11:08:00,72.7,71.5,30.07,WSW,248,2.0,2.0,96,0.00,,,0.74,Wunderground v.1.15,2013-08-06 15:08:00,
2013-08-06 11:10:00,72.8,71.9,30.07,WSW,238,0.0,1.0,97,0.00,,,0.74,Wunderground v.1.15,2013-08-06 15:10:00,
2013-08-06 11:11:00,72.9,72.0,30.07,WSW,238,0.0,1.0,97,0.00,,,0.74,Wunderground v.1.15,2013-08-06 15:11:00,
2013-08-06 11:13:00,73.2,72.3,30.07,WSW,238,0.0,1.0,97,0.00,,,0.74,Wunderground v.1.15,2013-08-06 15:13:00,
2013-08-06 11:15:00,73.6,72.7,30.07,WSW,238,0.0,1.0,97,0.00,,,0.74,Wunderground v.1.15,2013-08-06 15:15:00,
2013-08-06 11:16:00,73.8,72.9,30.07,WSW,238,0.0,1.0,97,0.00,,,0.74,Wunderground v.1.15,2013-08-06 15:16:00,
2013-08-06 11:18:00,74.1,73.2,30.07,WSW,238,0.0,1.0,97,0.00,,,0.74,Wunderground v.1.15,2013-08-06 15:18:00,
2013-08-06 11:20:00,74.2,73.3,30.06,NNE,23,1.0,1.0,97,0.00,,,0.74,Wunderground v.1.15,2013-08-06 15:20:00,
2013-08-06 11:21:00,74.2,73.0,30.06,NNE,12,0.0,2.0,96,0.00,,,0.74,Wunderground v.1.15,2013-08-06 15:21:00,
2013-08-06 11:23:00,74.2,73.0,30.07,NW,325,1.0,2.0,96,0.00,,,0.74,Wunderground v.1.15,2013-08-06 15:23:00,
2013-08-06 11:25:00,74.3,72.8,30.06,NNW,327,1.0,3.0,95,0.00,,,0.74,Wunderground v.1.15,2013-08-06 15:25:00,
2013-08-06 11:26:00,74.4,73.2,30.07,East,94,0.0,3.0,96,0.00,,,0.74,Wunderground v.1.15,2013-08-06 15:26:00,
2013-08-06 11:28:00,74.6,73.1,30.07,SW,235,1.0,3.0,95,0.00,,,0.74,Wunderground v.1.15,2013-08-06 15:28:00,
2013-08-06 11:29:00,74.6,73.1,30.07,West,259,1.0,3.0,95,0.00,,,0.74,Wunderground v.1.15,2013-08-06 15:29:00,
2013-08-06 11:31:00,74.9,73.4,30.07,SW,218,2.0,2.0,95,0.00,,,0.74,Wunderground v.1.15,2013-08-06 15:31:00,
2013-08-06 11:32:00,75.0,73.5,30.07,SW,221,3.0,3.0,95,0.00,,,0.74,Wunderground v.1.15,2013-08-06 15:32:00,
2013-08-06 11:33:00,75.1,73.6,30.07,SW,218,2.0,3.0,95,0.00,,,0.74,Wunderground v.1.15,2013-08-06 15:33:00,
2013-08-06 11:34:00,75.2,73.7,30.07,SW,225,3.0,3.0,95,0.00,,,0.74,Wunderground v.1.15,2013-08-06 15:34:00,
2013-08-06 11:36:00,75.3,73.1,30.06,SW,229,2.0,4.0,93,0.00,,,0.74,Wunderground v.1.15,2013-08-06 15:36:00,
2013-08-06 11:37:00,75.3,73.1,30.06,SW,236,1.0,4.0,93,0.00,,,0.74,Wunderground v.1.15,2013-08-06 15:37:00,
2013-08-06 11:39:00,75.4,73.6,30.06,SW,229,2.0,4.0,94,0.00,,,0.74,Wunderground v.1.15,2013-08-06 15:39:00,
2013-08-06 11:41:00,75.6,73.8,30.06,WNW,300,1.0,2.0,94,0.00,,,0.74,Wunderground v.1.15,2013-08-06 15:41:00,
2013-08-06 11:42:00,75.7,73.8,30.06,NW,319,0.0,2.0,94,0.00,,,0.74,Wunderground v.1.15,2013-08-06 15:42:00,
2013-08-06 11:44:00,75.9,74.0,30.07,WNW,297,0.0,2.0,94,0.00,,,0.74,Wunderground v.1.15,2013-08-06 15:44:00,
2013-08-06 11:46:00,75.9,73.7,30.07,SW,217,1.0,2.0,93,0.00,,,0.74,Wunderground v.1.15,2013-08-06 15:46:00,
2013-08-06 11:47:00,75.9,73.4,30.06,WSW,238,1.0,2.0,92,0.00,,,0.74,Wunderground v.1.15,2013-08-06 15:47:00,
2013-08-06 11:49:00,76.2,74.0,30.06,NNW,330,0.0,2.0,93,0.00,,,0.74,Wunderground v.1.15,2013-08-06 15:49:00,
2013-08-06 11:51:00,76.4,74.2,30.06,NNW,327,0.0,2.0,93,0.00,,,0.74,Wunderground v.1.15,2013-08-06 15:51:00,
2013-08-06 11:52:00,76.5,74.0,30.06,SSW,203,1.0,2.0,92,0.00,,,0.74,Wunderground v.1.15,2013-08-06 15:52:00,
2013-08-06 11:54:00,76.5,74.0,30.06,West,262,2.0,3.0,92,0.00,,,0.74,Wunderground v.1.15,2013-08-06 15:54:00,
2013-08-06 11:55:00,76.5,73.7,30.06,SW,215,1.0,3.0,91,0.00,,,0.74,Wunderground v.1.15,2013-08-06 15:55:00,
2013-08-06 11:56:00,76.5,73.7,30.06,SSE,160,0.0,3.0,91,0.00,,,0.74,Wunderground v.1.15,2013-08-06 15:56:00,
2013-08-06 11:57:00,76.6,73.8,30.06,SSE,160,0.0,3.0,91,0.00,,,0.74,Wunderground v.1.15,2013-08-06 15:57:00,
2013-08-06 11:59:00,76.7,74.2,30.06,SSE,160,1.0,3.0,92,0.00,,,0.74,Wunderground v.1.15,2013-08-06 15:59:00,
2013-08-06 12:00:00,76.8,74.0,30.06,SE,142,1.0,1.0,91,0.00,,,0.74,Wunderground v.1.15,2013-08-06 16:00:00,
2013-08-06 12:01:00,76.8,74.0,30.06,ESE,114,0.0,1.0,91,0.00,,,0.74,Wunderground v.1.15,2013-08-06 16:01:00,
2013-08-06 12:02:00,76.8,74.0,30.06,ESE,114,1.0,1.0,91,0.00,,,0.74,Wunderground v.1.15,2013-08-06 16:02:00,
2013-08-06 12:05:00,76.9,74.1,30.06,ESE,114,0.0,1.0,91,0.00,,,0.74,Wunderground v.1.15,2013-08-06 16:05:00,
2013-08-06 12:06:00,77.0,74.2,30.06,SSW,202,1.0,2.0,91,0.00,,,0.74,Wunderground v.1.15,2013-08-06 16:06:00,
2013-08-06 12:07:00,77.0,74.2,30.06,WSW,246,1.0,2.0,91,0.00,,,0.74,Wunderground v.1.15,2013-08-06 16:07:00,
2013-08-06 12:10:00,77.1,73.9,30.06,SSW,212,1.0,1.0,90,0.00,,,0.74,Wunderground v.1.15,2013-08-06 16:10:00,
2013-08-06 12:11:00,77.2,74.0,30.06,SW,226,2.0,2.0,90,0.00,,,0.74,Wunderground v.1.15,2013-08-06 16:11:00,
2013-08-06 12:12:00,77.3,73.8,30.06,SW,229,3.0,3.0,89,0.00,,,0.74,Wunderground v.1.15,2013-08-06 16:12:00,
2013-08-06 12:15:00,77.3,74.1,30.06,WSW,242,3.0,3.0,90,0.00,,,0.74,Wunderground v.1.15,2013-08-06 16:15:00,
2013-08-06 12:16:00,77.2,73.7,30.06,WSW,240,1.0,3.0,89,0.00,,,0.74,Wunderground v.1.15,2013-08-06 16:16:00,
2013-08-06 12:18:00,77.3,74.1,30.06,SW,235,3.0,3.0,90,0.00,,,0.74,Wunderground v.1.15,2013-08-06 16:18:00,
2013-08-06 12:20:00,77.3,73.5,30.06,WSW,246,2.0,2.0,88,0.00,,,0.74,Wunderground v.1.15,2013-08-06 16:20:00,
2013-08-06 12:21:00,77.4,73.6,30.06,WSW,253,0.0,2.0,88,0.00,,,0.74,Wunderground v.1.15,2013-08-06 16:21:00,
2013-08-06 12:23:00,77.6,74.4,30.06,SW,217,2.0,2.0,90,0.00,,,0.74,Wunderground v.1.15,2013-08-06 16:23:00,
2013-08-06 12:25:00,78.0,74.5,30.06,SSW,198,2.0,3.0,89,0.00,,,0.74,Wunderground v.1.15,2013-08-06 16:25:00,
2013-08-06 12:27:00,78.4,74.5,30.06,SSW,203,1.0,3.0,88,0.00,,,0.74,Wunderground v.1.15,2013-08-06 16:27:00,
2013-08-06 12:28:00,78.6,74.4,30.06,SSW,200,1.0,3.0,87,0.00,,,0.74,Wunderground v.1.15,2013-08-06 16:28:00,
2013-08-06 12:30:00,79.0,74.5,30.06,South,170,0.0,1.0,86,0.00,,,0.74,Wunderground v.1.15,2013-08-06 16:30:00,
2013-08-06 12:31:00,79.1,74.5,30.06,South,171,0.0,1.0,86,0.00,,,0.74,Wunderground v.1.15,2013-08-06 16:31:00,
2013-08-06 12:32:00,79.4,74.8,30.06,South,171,0.0,1.0,86,0.00,,,0.74,Wunderground v.1.15,2013-08-06 16:32:00,
2013-08-06 12:33:00,79.6,75.0,30.06,ESE,120,2.0,2.0,86,0.00,,,0.74,Wunderground v.1.15,2013-08-06 16:33:00,
2013-08-06 12:35:00,79.7,74.8,30.06,SW,232,1.0,2.0,85,0.00,,,0.74,Wunderground v.1.15,2013-08-06 16:35:00,
2013-08-06 12:36:00,79.7,74.8,30.06,SW,226,2.0,2.0,85,0.00,,,0.74,Wunderground v.1.15,2013-08-06 16:36:00,
2013-08-06 12:37:00,79.7,75.1,30.06,NW,312,2.0,2.0,86,0.00,,,0.74,Wunderground v.1.15,2013-08-06 16:37:00,
2013-08-06 12:39:00,79.7,75.1,30.06,NW,321,0.0,2.0,86,0.00,,,0.74,Wunderground v.1.15,2013-08-06 16:39:00,
2013-08-06 12:40:00,79.7,74.8,30.06,NW,321,0.0,1.0,85,0.00,,,0.74,Wunderground v.1.15,2013-08-06 16:40:00,
2013-08-06 12:41:00,79.7,75.1,30.06,NW,316,0.0,1.0,86,0.00,,,0.74,Wunderground v.1.15,2013-08-06 16:41:00,
2013-08-06 12:43:00,79.8,75.6,30.06,NW,316,0.0,1.0,87,0.00,,,0.74,Wunderground v.1.15,2013-08-06 16:43:00,
2013-08-06 12:44:00,79.8,75.6,30.06,WSW,242,0.0,1.0,87,0.00,,,0.74,Wunderground v.1.15,2013-08-06 16:44:00,
2013-08-06 12:46:00,79.7,74.8,30.06,SW,232,1.0,4.0,85,0.00,,,0.74,Wunderground v.1.15,2013-08-06 16:46:00,
2013-08-06 12:48:00,79.6,75.0,30.06,SW,222,2.0,4.0,86,0.00,,,0.74,Wunderground v.1.15,2013-08-06 16:48:00,
2013-08-06 12:49:00,79.5,74.6,30.06,SW,235,1.0,4.0,85,0.00,,,0.74,Wunderground v.1.15,2013-08-06 16:49:00,
2013-08-06 12:51:00,79.6,74.7,30.06,WSW,246,3.0,5.0,85,0.00,,,0.74,Wunderground v.1.15,2013-08-06 16:51:00,
2013-08-06 12:52:00,79.6,74.7,30.06,SW,232,1.0,5.0,85,0.00,,,0.74,Wunderground v.1.15,2013-08-06 16:52:00,
2013-08-06 12:53:00,79.7,75.8,30.06,NE,56,1.0,5.0,88,0.00,,,0.74,Wunderground v.1.15,2013-08-06 16:53:00,
2013-08-06 12:54:00,79.8,75.2,30.06,WNW,284,1.0,5.0,86,0.00,,,0.74,Wunderground v.1.15,2013-08-06 16:54:00,
2013-08-06 12:56:00,80.1,75.2,30.06,WSW,257,1.0,5.0,85,0.00,,,0.74,Wunderground v.1.15,2013-08-06 16:56:00,
2013-08-06 12:57:00,80.1,75.2,30.06,SW,217,1.0,5.0,85,0.00,,,0.74,Wunderground v.1.15,2013-08-06 16:57:00,
2013-08-06 12:58:00,80.3,75.4,30.06,West,276,1.0,5.0,85,0.00,,,0.74,Wunderground v.1.15,2013-08-06 16:58:00,
2013-08-06 12:59:00,80.3,75.7,30.06,West,276,0.0,5.0,86,0.00,,,0.74,Wunderground v.1.15,2013-08-06 16:59:00,
2013-08-06 13:01:00,80.2,74.2,30.06,SW,226,4.0,5.0,82,0.00,,,0.74,Wunderground v.1.15,2013-08-06 17:01:00,
2013-08-06 13:02:00,80.1,74.5,30.06,SW,215,0.0,5.0,83,0.00,,,0.74,Wunderground v.1.15,2013-08-06 17:02:00,
2013-08-06 13:03:00,80.0,74.0,30.06,SSE,163,2.0,5.0,82,0.00,,,0.74,Wunderground v.1.15,2013-08-06 17:03:00,
2013-08-06 13:04:00,80.0,74.0,30.06,SW,229,3.0,5.0,82,0.00,,,0.74,Wunderground v.1.15,2013-08-06 17:04:00,
2013-08-06 13:06:00,79.8,74.2,30.06,WSW,238,2.0,5.0,83,0.00,,,0.74,Wunderground v.1.15,2013-08-06 17:06:00,
2013-08-06 13:07:00,79.7,73.7,30.06,SSW,212,2.0,5.0,82,0.00,,,0.74,Wunderground v.1.15,2013-08-06 17:07:00,
2013-08-06 13:08:00,79.6,74.0,30.06,West,266,3.0,5.0,83,0.00,,,0.74,Wunderground v.1.15,2013-08-06 17:08:00,
2013-08-06 13:09:00,79.6,74.0,30.06,WSW,240,2.0,5.0,83,0.00,,,0.74,Wunderground v.1.15,2013-08-06 17:09:00,
2013-08-06 13:11:00,79.6,74.0,30.06,WSW,248,0.0,2.0,83,0.00,,,0.74,Wunderground v.1.15,2013-08-06 17:11:00,
2013-08-06 13:12:00,79.5,74.2,30.06,WSW,238,4.0,4.0,84,0.00,,,0.74,Wunderground v.1.15,2013-08-06 17:12:00,
2013-08-06 13:13:00,79.5,74.6,30.06,West,266,1.0,4.0,85,0.00,,,0.74,Wunderground v.1.15,2013-08-06 17:13:00,
2013-08-06 13:14:00,79.5,74.6,30.06,SW,219,0.0,4.0,85,0.00,,,0.74,Wunderground v.1.15,2013-08-06 17:14:00,
2013-08-06 13:16:00,79.5,74.6,30.06,SSW,212,2.0,4.0,85,0.00,,,0.74,Wunderground v.1.15,2013-08-06 17:16:00,
2013-08-06 13:17:00,79.5,74.6,30.06,WSW,250,2.0,4.0,85,0.00,,,0.74,Wunderground v.1.15,2013-08-06 17:17:00,
2013-08-06 13:18:00,79.5,74.6,30.06,SW,234,1.0,4.0,85,0.00,,,0.74,Wunderground v.1.15,2013-08-06 17:18:00,
2013-08-06 13:19:00,79.6,75.0,30.06,SSW,210,0.0,4.0,86,0.00,,,0.74,Wunderground v.1.15,2013-08-06 17:19:00,
2013-08-06 13:22:00,79.7,74.4,30.06,West,271,1.0,3.0,84,0.00,,,0.74,Wunderground v.1.15,2013-08-06 17:22:00,
2013-08-06 13:23:00,79.7,74.8,30.06,West,276,0.0,3.0,85,0.00,,,0.74,Wunderground v.1.15,2013-08-06 17:23:00,
2013-08-06 13:24:00,79.7,74.8,30.06,SW,229,2.0,3.0,85,0.00,,,0.74,Wunderground v.1.15,2013-08-06 17:24:00,
2013-08-06 13:27:00,79.8,75.2,30.06,SW,233,0.0,3.0,86,0.00,,,0.74,Wunderground v.1.15,2013-08-06 17:27:00,
2013-08-06 13:28:00,79.9,74.6,30.06,SW,226,1.0,3.0,84,0.00,,,0.74,Wunderground v.1.15,2013-08-06 17:28:00,
2013-08-06 13:29:00,79.9,74.6,30.06,SW,226,0.0,3.0,84,0.00,,,0.74,Wunderground v.1.15,2013-08-06 17:29:00,
2013-08-06 13:32:00,80.2,75.3,30.06,SW,226,0.0,1.0,85,0.00,,,0.74,Wunderground v.1.15,2013-08-06 17:32:00,
2013-08-06 13:33:00,80.2,75.3,30.06,SW,227,0.0,1.0,85,0.00,,,0.74,Wunderground v.1.15,2013-08-06 17:33:00,
2013-08-06 13:34:00,80.4,75.5,30.05,SW,226,0.0,1.0,85,0.00,,,0.74,Wunderground v.1.15,2013-08-06 17:34:00,
2013-08-06 13:37:00,80.5,74.9,30.05,WSW,250,3.0,3.0,83,0.00,,,0.74,Wunderground v.1.15,2013-08-06 17:37:00,
2013-08-06 13:38:00,80.5,74.9,30.05,SW,232,2.0,3.0,83,0.00,,,0.74,Wunderground v.1.15,2013-08-06 17:38:00,
2013-08-06 13:39:00,80.4,75.1,30.05,WSW,246,0.0,3.0,84,0.00,,,0.74,Wunderground v.1.15,2013-08-06 17:39:00,
2013-08-06 13:42:00,80.4,74.8,30.05,WNW,289,0.0,1.0,83,0.00,,,0.74,Wunderground v.1.15,2013-08-06 17:42:00,
2013-08-06 13:43:00,80.4,74.8,30.05,WNW,289,0.0,1.0,83,0.00,,,0.74,Wunderground v.1.15,2013-08-06 17:43:00,
2013-08-06 13:44:00,80.4,74.8,30.05,NW,322,2.0,4.0,83,0.00,,,0.74,Wunderground v.1.15,2013-08-06 17:44:00,
2013-08-06 13:47:00,80.1,74.5,30.05,NNE,14,0.0,4.0,83,0.00,,,0.74,Wunderground v.1.15,2013-08-06 17:47:00,
2013-08-06 13:48:00,80.0,74.4,30.05,NNE,16,2.0,4.0,83,0.00,,,0.74,Wunderground v.1.15,2013-08-06 17:48:00,
2013-08-06 13:49:00,79.9,74.6,30.05,NE,41,2.0,4.0,84,0.00,,,0.74,Wunderground v.1.15,2013-08-06 17:49:00,
2013-08-06 13:53:00,79.7,74.8,30.05,NE,38,0.0,3.0,85,0.00,,,0.74,Wunderground v.1.15,2013-08-06 17:53:00,
2013-08-06 13:55:00,79.6,74.7,30.05,NNE,30,1.0,3.0,85,0.00,,,0.74,Wunderground v.1.15,2013-08-06 17:55:00,
2013-08-06 13:58:00,79.7,74.4,30.05,NE,39,2.0,3.0,84,0.00,,,0.74,Wunderground v.1.15,2013-08-06 17:58:00,
2013-08-06 14:00:00,79.6,74.3,30.05,NE,53,1.0,2.0,84,0.00,,,0.74,Wunderground v.1.15,2013-08-06 18:00:00,
2013-08-06 14:03:00,79.6,74.7,30.05,NNW,327,1.0,3.0,85,0.00,,,0.74,Wunderground v.1.15,2013-08-06 18:03:00,
2013-08-06 14:04:00,79.7,75.1,30.05,NW,325,4.0,4.0,86,0.00,,,0.74,Wunderground v.1.15,2013-08-06 18:04:00,
2013-08-06 14:05:00,79.6,74.3,30.05,NNW,331,2.0,4.0,84,0.00,,,0.74,Wunderground v.1.15,2013-08-06 18:05:00,
2013-08-06 14:08:00,79.7,74.8,30.05,NW,325,0.0,4.0,85,0.00,,,0.74,Wunderground v.1.15,2013-08-06 18:08:00,
2013-08-06 14:09:00,79.8,75.2,30.04,NNW,327,0.0,4.0,86,0.00,,,0.74,Wunderground v.1.15,2013-08-06 18:09:00,
2013-08-06 14:10:00,79.9,75.3,30.04,WSW,244,1.0,1.0,86,0.00,,,0.74,Wunderground v.1.15,2013-08-06 18:10:00,
2013-08-06 14:13:00,80.2,74.9,30.05,WSW,243,0.0,1.0,84,0.00,,,0.74,Wunderground v.1.15,2013-08-06 18:13:00,
2013-08-06 14:14:00,80.5,75.6,30.04,WSW,243,0.0,1.0,85,0.00,,,0.74,Wunderground v.1.15,2013-08-06 18:14:00,
2013-08-06 14:15:00,80.6,75.7,30.04,NW,325,3.0,3.0,85,0.00,,,0.74,Wunderground v.1.15,2013-08-06 18:15:00,
2013-08-06 14:18:00,80.9,75.2,30.05,NW,319,0.0,3.0,83,0.00,,,0.74,Wunderground v.1.15,2013-08-06 18:18:00,
2013-08-06 14:20:00,81.0,74.6,30.04,NW,316,0.0,0.0,81,0.00,,,0.74,Wunderground v.1.15,2013-08-06 18:20:00,
2013-08-06 14:23:00,81.2,74.1,30.04,North,3,2.0,3.0,79,0.00,,,0.74,Wunderground v.1.15,2013-08-06 18:23:00,
2013-08-06 14:24:00,81.2,74.1,30.04,North,11,2.0,3.0,79,0.00,,,0.74,Wunderground v.1.15,2013-08-06 18:24:00,
2013-08-06 14:25:00,81.2,72.9,30.05,NE,38,2.0,4.0,76,0.00,,,0.74,Wunderground v.1.15,2013-08-06 18:25:00,
2013-08-06 14:26:00,81.2,72.9,30.05,NE,41,2.0,4.0,76,0.00,,,0.74,Wunderground v.1.15,2013-08-06 18:26:00,
2013-08-06 14:28:00,81.3,74.5,30.05,WNW,290,1.0,4.0,80,0.00,,,0.74,Wunderground v.1.15,2013-08-06 18:28:00,
2013-08-06 14:29:00,81.3,74.5,30.05,WNW,289,1.0,4.0,80,0.00,,,0.74,Wunderground v.1.15,2013-08-06 18:29:00,
2013-08-06 14:31:00,81.6,74.8,30.04,NW,321,1.0,2.0,80,0.00,,,0.74,Wunderground v.1.15,2013-08-06 18:31:00,
2013-08-06 14:34:00,82.1,73.4,30.04,WSW,240,3.0,5.0,75,0.00,,,0.74,Wunderground v.1.15,2013-08-06 18:34:00,
2013-08-06 14:36:00,82.4,75.2,30.04,WSW,258,0.0,5.0,79,0.00,,,0.74,Wunderground v.1.15,2013-08-06 18:36:00,
2013-08-06 14:39:00,82.9,73.8,30.04,WSW,245,3.0,5.0,74,0.00,,,0.74,Wunderground v.1.15,2013-08-06 18:39:00,
2013-08-06 14:40:00,82.9,74.6,30.04,SW,233,1.0,2.0,76,0.00,,,0.74,Wunderground v.1.15,2013-08-06 18:40:00,
2013-08-06 14:41:00,83.1,74.7,30.03,NNE,17,1.0,2.0,76,0.00,,,0.74,Wunderground v.1.15,2013-08-06 18:41:00,
2013-08-06 14:44:00,83.3,74.9,30.03,WNW,300,1.0,4.0,76,0.00,,,0.74,Wunderground v.1.15,2013-08-06 18:44:00,
2013-08-06 14:45:00,83.4,75.0,30.03,NW,312,0.0,4.0,76,0.00,,,0.74,Wunderground v.1.15,2013-08-06 18:45:00,
2013-08-06 14:46:00,83.7,74.9,30.03,North,358,2.0,4.0,75,0.00,,,0.74,Wunderground v.1.15,2013-08-06 18:46:00,
2013-08-06 14:49:00,84.1,75.7,30.03,ENE,69,0.0,4.0,76,0.00,,,0.74,Wunderground v.1.15,2013-08-06 18:49:00,
2013-08-06 14:50:00,84.2,75.8,30.03,NW,308,1.0,2.0,76,0.00,,,0.74,Wunderground v.1.15,2013-08-06 18:50:00,
2013-08-06 14:51:00,84.3,75.1,30.03,NNW,330,3.0,4.0,74,0.00,,,0.74,Wunderground v.1.15,2013-08-06 18:51:00,
2013-08-06 14:54:00,84.1,74.5,30.02,NW,325,3.0,5.0,73,0.00,,,0.74,Wunderground v.1.15,2013-08-06 18:54:00,
2013-08-06 14:55:00,84.0,74.4,30.02,NNW,328,4.0,5.0,73,0.00,,,0.74,Wunderground v.1.15,2013-08-06 18:55:00,
2013-08-06 14:56:00,83.9,75.1,30.02,WNW,302,1.0,5.0,75,0.00,,,0.74,Wunderground v.1.15,2013-08-06 18:56:00,
2013-08-06 14:57:00,83.9,73.9,30.02,WNW,302,0.0,5.0,72,0.00,,,0.74,Wunderground v.1.15,2013-08-06 18:57:00,
2013-08-06 14:59:00,84.0,73.6,30.02,East,82,0.0,5.0,71,0.00,,,0.74,Wunderground v.1.15,2013-08-06 18:59:00,
2013-08-06 15:00:00,84.1,73.7,30.02,WSW,238,1.0,2.0,71,0.00,,,0.74,Wunderground v.1.15,2013-08-06 19:00:00,
2013-08-06 15:01:00,84.2,73.8,30.02,WSW,256,2.0,4.0,71,0.00,,,0.74,Wunderground v.1.15,2013-08-06 19:01:00,
2013-08-06 15:02:00,84.2,73.8,30.02,West,262,2.0,4.0,71,0.00,,,0.74,Wunderground v.1.15,2013-08-06 19:02:00,
2013-08-06 15:04:00,84.3,75.5,30.02,West,266,1.0,6.0,75,0.00,,,0.74,Wunderground v.1.15,2013-08-06 19:04:00,
2013-08-06 15:05:00,84.4,76.4,30.02,WSW,250,1.0,6.0,77,0.00,,,0.74,Wunderground v.1.15,2013-08-06 19:05:00,
2013-08-06 15:06:00,84.5,76.5,30.02,NW,315,1.0,6.0,77,0.00,,,0.74,Wunderground v.1.15,2013-08-06 19:06:00,
2013-08-06 15:07:00,84.6,77.0,30.02,NNW,335,2.0,6.0,78,0.00,,,0.74,Wunderground v.1.15,2013-08-06 19:07:00,
2013-08-06 15:09:00,84.9,75.3,30.02,North,356,4.0,6.0,73,0.00,,,0.74,Wunderground v.1.15,2013-08-06 19:09:00,
2013-08-06 15:11:00,84.9,74.4,30.02,NNE,16,2.0,3.0,71,0.00,,,0.74,Wunderground v.1.15,2013-08-06 19:11:00,
2013-08-06 15:12:00,85.0,75.0,30.02,NNW,338,1.0,3.0,72,0.00,,,0.74,Wunderground v.1.15,2013-08-06 19:12:00,
2013-08-06 15:15:00,85.2,74.7,30.02,NNW,346,2.0,3.0,71,0.00,,,0.74,Wunderground v.1.15,2013-08-06 19:15:00,
2013-08-06 15:16:00,85.3,74.8,30.02,North,6,6.0,6.0,71,0.00,,,0.74,Wunderground v.1.15,2013-08-06 19:16:00,
2013-08-06 15:17:00,85.3,74.8,30.02,North,350,3.0,6.0,71,0.00,,,0.74,Wunderground v.1.15,2013-08-06 19:17:00,
2013-08-06 15:20:00,85.3,75.7,30.02,West,266,1.0,2.0,73,0.00,,,0.74,Wunderground v.1.15,2013-08-06 19:20:00,
2013-08-06 15:21:00,85.5,75.4,30.02,West,262,3.0,3.0,72,0.00,,,0.74,Wunderground v.1.15,2013-08-06 19:21:00,
2013-08-06 15:22:00,85.6,76.8,30.02,NNW,343,2.0,3.0,75,0.00,,,0.74,Wunderground v.1.15,2013-08-06 19:22:00,
2013-08-06 15:25:00,85.3,74.4,30.02,NE,41,4.0,7.0,70,0.00,,,0.74,Wunderground v.1.15,2013-08-06 19:25:00,
2013-08-06 15:26:00,85.0,74.1,30.02,NE,50,3.0,7.0,70,0.00,,,0.74,Wunderground v.1.15,2013-08-06 19:26:00,
2013-08-06 15:27:00,84.6,73.7,30.02,NE,55,3.0,7.0,70,0.00,,,0.74,Wunderground v.1.15,2013-08-06 19:27:00,
2013-08-06 15:28:00,84.5,73.6,30.02,ENE,58,2.0,7.0,70,0.00,,,0.74,Wunderground v.1.15,2013-08-06 19:28:00,
2013-08-06 15:30:00,83.9,73.9,30.02,North,7,1.0,3.0,72,0.00,,,0.74,Wunderground v.1.15,2013-08-06 19:30:00,
2013-08-06 15:31:00,83.8,74.6,30.02,East,82,2.0,3.0,74,0.00,,,0.74,Wunderground v.1.15,2013-08-06 19:31:00,
2013-08-06 15:32:00,83.8,74.6,30.02,ESE,103,1.0,3.0,74,0.00,,,0.74,Wunderground v.1.15,2013-08-06 19:32:00,
2013-08-06 15:33:00,83.9,74.7,30.02,ESE,117,0.0,3.0,74,0.00,,,0.74,Wunderground v.1.15,2013-08-06 19:33:00,
2013-08-06 15:35:00,83.9,75.1,30.02,NE,48,2.0,3.0,75,0.00,,,0.74,Wunderground v.1.15,2013-08-06 19:35:00,
2013-08-06 15:36:00,83.8,73.8,30.02,NE,34,2.0,3.0,72,0.00,,,0.74,Wunderground v.1.15,2013-08-06 19:36:00,
2013-08-06 15:37:00,83.8,73.8,30.02,NE,36,1.0,3.0,72,0.00,,,0.74,Wunderground v.1.15,2013-08-06 19:37:00,
2013-08-06 15:38:00,83.7,73.7,30.02,NNE,27,0.0,3.0,72,0.00,,,0.74,Wunderground v.1.15,2013-08-06 19:38:00,
2013-08-06 15:40:00,83.8,74.6,30.02,WNW,297,1.0,1.0,74,0.00,,,0.74,Wunderground v.1.15,2013-08-06 19:40:00,
2013-08-06 15:42:00,84.1,74.1,30.02,SSW,212,0.0,1.0,72,0.00,,,0.74,Wunderground v.1.15,2013-08-06 19:42:00,
2013-08-06 15:43:00,84.4,75.2,30.02,North,359,1.0,2.0,74,0.00,,,0.74,Wunderground v.1.15,2013-08-06 19:43:00,
2013-08-06 15:45:00,84.7,75.5,30.02,NNE,15,2.0,2.0,74,0.00,,,0.74,Wunderground v.1.15,2013-08-06 19:45:00,
2013-08-06 15:47:00,84.9,76.1,30.01,NNW,346,1.0,2.0,75,0.00,,,0.74,Wunderground v.1.15,2013-08-06 19:47:00,
2013-08-06 15:48:00,85.2,76.4,30.02,NNE,15,3.0,4.0,75,0.00,,,0.74,Wunderground v.1.15,2013-08-06 19:48:00,
2013-08-06 15:49:00,85.2,75.6,30.02,NNW,328,2.0,4.0,73,0.00,,,0.74,Wunderground v.1.15,2013-08-06 19:49:00,
2013-08-06 15:50:00,85.3,74.8,30.01,ESE,114,2.0,2.0,71,0.00,,,0.74,Wunderground v.1.15,2013-08-06 19:50:00,
2013-08-06 15:52:00,85.5,75.4,30.01,NNW,335,4.0,5.0,72,0.00,,,0.74,Wunderground v.1.15,2013-08-06 19:52:00,
2013-08-06 15:53:00,85.3,74.8,30.01,ESE,103,2.0,7.0,71,0.00,,,0.74,Wunderground v.1.15,2013-08-06 19:53:00,
2013-08-06 15:54:00,85.3,75.7,30.01,SSW,204,1.0,7.0,73,0.00,,,0.74,Wunderground v.1.15,2013-08-06 19:54:00,
2013-08-06 15:55:00,85.4,76.2,30.01,SE,125,0.0,7.0,74,0.00,,,0.74,Wunderground v.1.15,2013-08-06 19:55:00,
2013-08-06 15:57:00,85.6,75.1,30.01,NW,325,1.0,7.0,71,0.00,,,0.74,Wunderground v.1.15,2013-08-06 19:57:00,
2013-08-06 15:58:00,85.6,75.5,30.01,NNW,348,1.0,7.0,72,0.00,,,0.74,Wunderground v.1.15,2013-08-06 19:58:00,
2013-08-06 15:59:00,85.6,75.5,30.01,NNW,333,3.0,7.0,72,0.00,,,0.74,Wunderground v.1.15,2013-08-06 19:59:00,
2013-08-06 16:00:00,85.5,75.0,30.01,ENE,67,2.0,3.0,71,0.00,,,0.74,Wunderground v.1.15,2013-08-06 20:00:00,
2013-08-06 16:02:00,85.3,73.5,30.01,NNE,27,3.0,4.0,68,0.00,,,0.74,Wunderground v.1.15,2013-08-06 20:02:00,
2013-08-06 16:03:00,85.3,74.0,30.01,NNE,25,1.0,4.0,69,0.00,,,0.74,Wunderground v.1.15,2013-08-06 20:03:00,
2013-08-06 16:04:00,85.2,74.3,30.01,NNW,339,3.0,4.0,70,0.00,,,0.74,Wunderground v.1.15,2013-08-06 20:04:00,
2013-08-06 16:05:00,85.3,76.5,30.01,SW,229,1.0,4.0,75,0.00,,,0.74,Wunderground v.1.15,2013-08-06 20:05:00,
2013-08-06 16:07:00,85.6,76.8,30.01,ENE,68,0.0,4.0,75,0.00,,,0.74,Wunderground v.1.15,2013-08-06 20:07:00,
2013-08-06 16:08:00,85.6,75.9,30.01,ENE,68,0.0,4.0,73,0.00,,,0.74,Wunderground v.1.15,2013-08-06 20:08:00,
2013-08-06 16:09:00,85.8,76.5,30.01,NW,319,0.0,4.0,74,0.00,,,0.74,Wunderground v.1.15,2013-08-06 20:09:00,
2013-08-06 16:10:00,86.2,74.8,30.01,SE,126,0.0,1.0,69,0.00,,,0.74,Wunderground v.1.15,2013-08-06 20:10:00,
2013-08-06 16:13:00,86.4,74.6,30.01,North,11,2.0,5.0,68,0.00,,,0.74,Wunderground v.1.15,2013-08-06 20:13:00,
2013-08-06 16:14:00,86.3,75.4,30.01,West,259,0.0,5.0,70,0.00,,,0.74,Wunderground v.1.15,2013-08-06 20:14:00,
2013-08-06 16:15:00,86.3,75.4,30.01,West,259,0.0,5.0,70,0.00,,,0.74,Wunderground v.1.15,2013-08-06 20:15:00,
2013-08-06 16:18:00,86.1,74.7,30.01,NE,36,1.0,5.0,69,0.00,,,0.74,Wunderground v.1.15,2013-08-06 20:18:00,
2013-08-06 16:19:00,86.1,74.7,30.01,SW,225,1.0,5.0,69,0.00,,,0.74,Wunderground v.1.15,2013-08-06 20:19:00,
2013-08-06 16:20:00,86.1,75.2,30.01,SW,222,0.0,1.0,70,0.00,,,0.74,Wunderground v.1.15,2013-08-06 20:20:00,
2013-08-06 16:21:00,86.0,75.1,30.01,SW,222,0.0,1.0,70,0.00,,,0.74,Wunderground v.1.15,2013-08-06 20:21:00,
2013-08-06 16:23:00,85.9,75.4,30.01,NNW,346,0.0,4.0,71,0.00,,,0.74,Wunderground v.1.15,2013-08-06 20:23:00,
2013-08-06 16:24:00,85.8,75.3,30.01,North,351,0.0,4.0,71,0.00,,,0.74,Wunderground v.1.15,2013-08-06 20:24:00,
2013-08-06 16:25:00,85.8,75.3,30.01,NNW,339,2.0,4.0,71,0.00,,,0.74,Wunderground v.1.15,2013-08-06 20:25:00,
2013-08-06 16:26:00,85.7,75.6,30.01,NNW,346,0.0,4.0,72,0.00,,,0.74,Wunderground v.1.15,2013-08-06 20:26:00,
2013-08-06 16:28:00,85.5,75.4,30.01,NNW,330,0.0,4.0,72,0.00,,,0.74,Wunderground v.1.15,2013-08-06 20:28:00,
2013-08-06 16:30:00,85.5,75.4,30.01,NNE,29,0.0,0.0,72,0.00,,,0.74,Wunderground v.1.15,2013-08-06 20:30:00,
2013-08-06 16:31:00,85.4,75.3,30.01,East,82,0.0,1.0,72,0.00,,,0.74,Wunderground v.1.15,2013-08-06 20:31:00,
2013-08-06 16:32:00,85.4,75.3,30.01,ESE,123,0.0,1.0,72,0.00,,,0.74,Wunderground v.1.15,2013-08-06 20:32:00,
2013-08-06 16:33:00,85.4,75.8,30.01,East,82,1.0,2.0,73,0.00,,,0.74,Wunderground v.1.15,2013-08-06 20:33:00,
2013-08-06 16:34:00,85.4,75.8,30.01,East,82,1.0,2.0,73,0.00,,,0.74,Wunderground v.1.15,2013-08-06 20:34:00,
2013-08-06 16:35:00,85.3,75.7,30.01,NE,43,1.0,2.0,73,0.00,,,0.74,Wunderground v.1.15,2013-08-06 20:35:00,
2013-08-06 16:37:00,85.1,75.1,30.01,NE,50,0.0,2.0,72,0.00,,,0.74,Wunderground v.1.15,2013-08-06 20:37:00,
2013-08-06 16:38:00,85.0,75.4,30.01,ESE,108,0.0,2.0,73,0.00,,,0.74,Wunderground v.1.15,2013-08-06 20:38:00,
2013-08-06 16:39:00,85.0,75.4,30.01,ESE,104,1.0,2.0,73,0.00,,,0.74,Wunderground v.1.15,2013-08-06 20:39:00,
2013-08-06 16:40:00,84.9,75.3,30.01,SW,218,1.0,1.0,73,0.00,,,0.74,Wunderground v.1.15,2013-08-06 20:40:00,
2013-08-06 16:42:00,84.8,75.6,30.01,West,271,1.0,2.0,74,0.00,,,0.74,Wunderground v.1.15,2013-08-06 20:42:00,
2013-08-06 16:44:00,84.6,75.0,30.01,NNE,30,1.0,3.0,73,0.00,,,0.74,Wunderground v.1.15,2013-08-06 20:44:00,
2013-08-06 16:45:00,84.5,75.7,30.01,North,351,3.0,3.0,75,0.00,,,0.74,Wunderground v.1.15,2013-08-06 20:45:00,
2013-08-06 16:47:00,84.2,75.0,30.01,East,94,0.0,3.0,74,0.00,,,0.74,Wunderground v.1.15,2013-08-06 20:47:00,
2013-08-06 16:49:00,84.1,74.9,30.01,NE,41,0.0,3.0,74,0.00,,,0.74,Wunderground v.1.15,2013-08-06 20:49:00,
2013-08-06 16:50:00,84.1,74.5,30.01,East,84,1.0,2.0,73,0.00,,,0.74,Wunderground v.1.15,2013-08-06 20:50:00,
2013-08-06 16:52:00,84.0,75.2,30.01,NNW,340,0.0,2.0,75,0.00,,,0.74,Wunderground v.1.15,2013-08-06 20:52:00,
2013-08-06 16:54:00,83.9,74.7,30.01,WSW,238,3.0,3.0,74,0.00,,,0.74,Wunderground v.1.15,2013-08-06 20:54:00,
2013-08-06 16:55:00,83.7,74.5,30.01,SW,222,0.0,3.0,74,0.00,,,0.74,Wunderground v.1.15,2013-08-06 20:55:00,
2013-08-06 16:56:00,83.7,74.5,30.01,SW,222,0.0,3.0,74,0.00,,,0.74,Wunderground v.1.15,2013-08-06 20:56:00,
2013-08-06 16:57:00,83.6,74.4,30.01,WSW,242,1.0,3.0,74,0.00,,,0.74,Wunderground v.1.15,2013-08-06 20:57:00,
2013-08-06 16:59:00,83.5,74.7,30.01,WSW,243,0.0,3.0,75,0.00,,,0.74,Wunderground v.1.15,2013-08-06 20:59:00,
2013-08-06 17:00:00,83.5,74.7,30.01,WSW,243,0.0,1.0,75,0.00,,,0.74,Wunderground v.1.15,2013-08-06 21:00:00,
2013-08-06 17:01:00,83.5,75.1,30.01,WSW,243,0.0,1.0,76,0.00,,,0.74,Wunderground v.1.15,2013-08-06 21:01:00,
2013-08-06 17:02:00,83.5,74.7,30.01,NE,46,0.0,1.0,75,0.00,,,0.74,Wunderground v.1.15,2013-08-06 21:02:00,
2013-08-06 17:04:00,83.5,74.7,30.01,NE,45,0.0,1.0,75,0.00,,,0.74,Wunderground v.1.15,2013-08-06 21:04:00,
2013-08-06 17:05:00,83.5,74.7,30.01,NW,321,2.0,3.0,75,0.00,,,0.74,Wunderground v.1.15,2013-08-06 21:05:00,
2013-08-06 17:06:00,83.5,75.1,30.01,NNW,340,1.0,3.0,76,0.00,,,0.74,Wunderground v.1.15,2013-08-06 21:06:00,
2013-08-06 17:07:00,83.3,74.9,30.01,NNW,342,1.0,3.0,76,0.00,,,0.74,Wunderground v.1.15,2013-08-06 21:07:00,
2013-08-06 17:09:00,83.2,75.2,30.01,NNE,23,1.0,3.0,77,0.00,,,0.74,Wunderground v.1.15,2013-08-06 21:09:00,
2013-08-06 17:10:00,83.1,75.1,30.01,NNE,25,1.0,2.0,77,0.00,,,0.74,Wunderground v.1.15,2013-08-06 21:10:00,
2013-08-06 17:11:00,83.1,75.1,30.01,NW,325,0.0,2.0,77,0.00,,,0.74,Wunderground v.1.15,2013-08-06 21:11:00,
2013-08-06 17:13:00,83.0,75.4,30.01,North,6,0.0,2.0,78,0.00,,,0.74,Wunderground v.1.15,2013-08-06 21:13:00,
2013-08-06 17:14:00,82.9,74.9,30.01,North,6,0.0,2.0,77,0.00,,,0.74,Wunderground v.1.15,2013-08-06 21:14:00,
2013-08-06 17:15:00,83.0,75.0,30.01,North,6,0.0,2.0,77,0.00,,,0.74,Wunderground v.1.15,2013-08-06 21:15:00,
2013-08-06 17:16:00,83.0,75.0,30.01,NNE,16,0.0,2.0,77,0.00,,,0.74,Wunderground v.1.15,2013-08-06 21:16:00,
2013-08-06 17:18:00,83.1,75.1,30.01,NNW,346,0.0,2.0,77,0.00,,,0.74,Wunderground v.1.15,2013-08-06 21:18:00,
2013-08-06 17:20:00,83.0,75.0,30.01,NW,308,0.0,2.0,77,0.00,,,0.74,Wunderground v.1.15,2013-08-06 21:20:00,
2013-08-06 17:21:00,83.0,75.0,30.01,NW,308,0.0,1.0,77,0.00,,,0.74,Wunderground v.1.15,2013-08-06 21:21:00,
2013-08-06 17:23:00,83.1,75.1,30.01,NNW,330,1.0,4.0,77,0.00,,,0.74,Wunderground v.1.15,2013-08-06 21:23:00,
2013-08-06 17:25:00,83.1,75.1,30.01,NW,311,2.0,4.0,77,0.00,,,0.74,Wunderground v.1.15,2013-08-06 21:25:00,
2013-08-06 17:26:00,83.1,75.1,30.01,NW,312,0.0,4.0,77,0.00,,,0.74,Wunderground v.1.15,2013-08-06 21:26:00,
2013-08-06 17:28:00,83.1,74.7,30.01,North,7,1.0,4.0,76,0.00,,,0.74,Wunderground v.1.15,2013-08-06 21:28:00,
2013-08-06 17:30:00,83.0,75.0,30.01,NW,311,2.0,3.0,77,0.00,,,0.74,Wunderground v.1.15,2013-08-06 21:30:00,
2013-08-06 17:31:00,82.9,74.6,30.01,North,9,2.0,3.0,76,0.00,,,0.74,Wunderground v.1.15,2013-08-06 21:31:00,
2013-08-06 17:33:00,82.8,74.8,30.01,NNW,347,1.0,3.0,77,0.00,,,0.74,Wunderground v.1.15,2013-08-06 21:33:00,
2013-08-06 17:35:00,82.6,75.0,30.01,NW,308,2.0,5.0,78,0.00,,,0.74,Wunderground v.1.15,2013-08-06 21:35:00,
2013-08-06 17:36:00,82.5,75.3,30.01,NE,38,2.0,5.0,79,0.00,,,0.74,Wunderground v.1.15,2013-08-06 21:36:00,
2013-08-06 17:38:00,82.1,74.9,30.01,SSW,212,1.0,5.0,79,0.00,,,0.74,Wunderground v.1.15,2013-08-06 21:38:00,
2013-08-06 17:40:00,81.9,74.7,30.01,NNW,338,1.0,2.0,79,0.00,,,0.74,Wunderground v.1.15,2013-08-06 21:40:00,
2013-08-06 17:41:00,81.8,75.0,30.01,WNW,283,1.0,4.0,80,0.00,,,0.74,Wunderground v.1.15,2013-08-06 21:41:00,
2013-08-06 17:44:00,81.5,75.1,30.01,NW,311,0.0,4.0,81,0.00,,,0.74,Wunderground v.1.15,2013-08-06 21:44:00,
2013-08-06 17:45:00,81.4,74.6,30.01,NW,325,2.0,4.0,80,0.00,,,0.74,Wunderground v.1.15,2013-08-06 21:45:00,
2013-08-06 17:46:00,81.3,74.5,30.01,NNW,328,1.0,4.0,80,0.00,,,0.74,Wunderground v.1.15,2013-08-06 21:46:00,
2013-08-06 17:47:00,81.2,74.8,30.01,NNW,328,0.0,4.0,81,0.00,,,0.74,Wunderground v.1.15,2013-08-06 21:47:00,
2013-08-06 17:49:00,81.1,75.1,30.01,NW,325,1.0,4.0,82,0.00,,,0.74,Wunderground v.1.15,2013-08-06 21:49:00,
2013-08-06 17:50:00,81.0,75.0,30.01,NW,321,0.0,2.0,82,0.00,,,0.74,Wunderground v.1.15,2013-08-06 21:50:00,
2013-08-06 17:51:00,81.0,75.0,30.01,NNW,333,2.0,2.0,82,0.00,,,0.74,Wunderground v.1.15,2013-08-06 21:51:00,
2013-08-06 17:52:00,81.0,75.0,30.01,WNW,287,1.0,2.0,82,0.00,,,0.74,Wunderground v.1.15,2013-08-06 21:52:00,
2013-08-06 17:54:00,81.0,75.3,30.01,NNW,346,1.0,2.0,83,0.00,,,0.74,Wunderground v.1.15,2013-08-06 21:54:00,
2013-08-06 17:56:00,81.0,75.0,30.02,NNW,340,2.0,2.0,82,0.00,,,0.74,Wunderground v.1.15,2013-08-06 21:56:00,
2013-08-06 17:57:00,81.0,75.3,30.02,NW,321,0.0,3.0,83,0.00,,,0.74,Wunderground v.1.15,2013-08-06 21:57:00,
2013-08-06 17:59:00,80.9,74.9,30.02,NW,319,1.0,3.0,82,0.00,,,0.74,Wunderground v.1.15,2013-08-06 21:59:00,
2013-08-06 18:01:00,80.8,75.2,30.02,NNW,342,1.0,1.0,83,0.00,,,0.74,Wunderground v.1.15,2013-08-06 22:01:00,
2013-08-06 18:02:00,80.8,75.2,30.02,NNW,346,0.0,1.0,83,0.00,,,0.74,Wunderground v.1.15,2013-08-06 22:02:00,
2013-08-06 18:03:00,80.8,75.2,30.02,NNW,346,0.0,1.0,83,0.00,,,0.74,Wunderground v.1.15,2013-08-06 22:03:00,
2013-08-06 18:04:00,80.8,75.5,30.02,NNW,346,0.0,1.0,84,0.00,,,0.74,Wunderground v.1.15,2013-08-06 22:04:00,
2013-08-06 18:06:00,80.9,75.2,30.02,NNW,346,0.0,1.0,83,0.00,,,0.74,Wunderground v.1.15,2013-08-06 22:06:00,
2013-08-06 18:07:00,80.9,75.2,30.02,North,349,0.0,1.0,83,0.00,,,0.74,Wunderground v.1.15,2013-08-06 22:07:00,
2013-08-06 18:08:00,80.9,75.2,30.02,North,349,1.0,1.0,83,0.00,,,0.74,Wunderground v.1.15,2013-08-06 22:08:00,
2013-08-06 18:09:00,80.9,75.6,30.02,North,352,3.0,3.0,84,0.00,,,0.74,Wunderground v.1.15,2013-08-06 22:09:00,
2013-08-06 18:12:00,80.8,74.8,30.02,NNW,335,1.0,2.0,82,0.00,,,0.74,Wunderground v.1.15,2013-08-06 22:12:00,
2013-08-06 18:13:00,80.8,74.8,30.02,NNW,335,0.0,2.0,82,0.00,,,0.74,Wunderground v.1.15,2013-08-06 22:13:00,
2013-08-06 18:15:00,80.8,75.2,30.02,North,352,0.0,2.0,83,0.00,,,0.74,Wunderground v.1.15,2013-08-06 22:15:00,
2013-08-06 18:17:00,80.8,75.2,30.02,East,94,0.0,2.0,83,0.00,,,0.74,Wunderground v.1.15,2013-08-06 22:17:00,
2013-08-06 18:18:00,80.7,75.1,30.02,WSW,239,1.0,2.0,83,0.00,,,0.74,Wunderground v.1.15,2013-08-06 22:18:00,
2013-08-06 18:20:00,80.7,75.1,30.02,SSW,203,0.0,1.0,83,0.00,,,0.74,Wunderground v.1.15,2013-08-06 22:20:00,
2013-08-06 18:22:00,80.5,74.9,30.02,ENE,73,1.0,3.0,83,0.00,,,0.74,Wunderground v.1.15,2013-08-06 22:22:00,
2013-08-06 18:23:00,80.5,74.5,30.02,ENE,61,1.0,3.0,82,0.00,,,0.74,Wunderground v.1.15,2013-08-06 22:23:00,
2013-08-06 18:24:00,80.4,74.8,30.02,SE,139,0.0,3.0,83,0.00,,,0.74,Wunderground v.1.15,2013-08-06 22:24:00,
2013-08-06 18:25:00,80.3,74.7,30.02,NNE,27,1.0,3.0,83,0.00,,,0.74,Wunderground v.1.15,2013-08-06 22:25:00,
2013-08-06 18:27:00,80.1,74.5,30.02,North,360,1.0,3.0,83,0.00,,,0.74,Wunderground v.1.15,2013-08-06 22:27:00,
2013-08-06 18:28:00,80.1,74.5,30.02,North,359,1.0,3.0,83,0.00,,,0.74,Wunderground v.1.15,2013-08-06 22:28:00,
2013-08-06 18:29:00,80.1,74.5,30.02,ENE,63,1.0,3.0,83,0.00,,,0.74,Wunderground v.1.15,2013-08-06 22:29:00,
2013-08-06 18:30:00,79.9,74.6,30.02,NNW,342,1.0,2.0,84,0.00,,,0.74,Wunderground v.1.15,2013-08-06 22:30:00,
2013-08-06 18:32:00,79.7,74.1,30.02,North,5,4.0,5.0,83,0.00,,,0.74,Wunderground v.1.15,2013-08-06 22:32:00,
2013-08-06 18:33:00,79.6,74.3,30.02,NNW,340,1.0,5.0,84,0.00,,,0.74,Wunderground v.1.15,2013-08-06 22:33:00,
2013-08-06 18:34:00,79.6,74.3,30.02,NNW,341,1.0,5.0,84,0.00,,,0.74,Wunderground v.1.15,2013-08-06 22:34:00,
2013-08-06 18:35:00,79.3,74.0,30.02,SE,131,2.0,11.0,84,0.00,,,0.74,Wunderground v.1.15,2013-08-06 22:35:00,
2013-08-06 18:38:00,78.9,74.0,30.02,NE,44,5.0,11.0,85,0.00,,,0.74,Wunderground v.1.15,2013-08-06 22:38:00,
2013-08-06 18:39:00,78.6,73.7,30.03,SSE,154,1.0,11.0,85,0.00,,,0.74,Wunderground v.1.15,2013-08-06 22:39:00,
2013-08-06 18:41:00,78.3,73.8,30.03,NW,312,1.0,3.0,86,0.00,,,0.74,Wunderground v.1.15,2013-08-06 22:41:00,
2013-08-06 18:43:00,78.0,73.1,30.03,North,349,1.0,5.0,85,0.00,,,0.74,Wunderground v.1.15,2013-08-06 22:43:00,
2013-08-06 18:44:00,77.8,72.9,30.03,NW,311,0.0,5.0,85,0.00,,,0.74,Wunderground v.1.15,2013-08-06 22:44:00,
2013-08-06 18:45:00,77.8,73.3,30.03,NNE,32,3.0,5.0,86,0.00,,,0.74,Wunderground v.1.15,2013-08-06 22:45:00,
2013-08-06 18:46:00,77.7,73.2,30.03,NNW,340,1.0,5.0,86,0.00,,,0.74,Wunderground v.1.15,2013-08-06 22:46:00,
2013-08-06 18:48:00,77.4,72.9,30.03,NW,325,3.0,7.0,86,0.00,,,0.74,Wunderground v.1.15,2013-08-06 22:48:00,
2013-08-06 18:49:00,77.1,72.6,30.02,North,359,4.0,7.0,86,0.00,,,0.74,Wunderground v.1.15,2013-08-06 22:49:00,
2013-08-06 18:51:00,77.0,72.5,30.02,NNE,33,1.0,4.0,86,0.00,,,0.74,Wunderground v.1.15,2013-08-06 22:51:00,
2013-08-06 18:53:00,76.8,72.6,30.02,NE,39,0.0,4.0,87,0.00,,,0.74,Wunderground v.1.15,2013-08-06 22:53:00,
2013-08-06 18:56:00,76.8,72.6,30.02,North,349,2.0,4.0,87,0.00,,,0.74,Wunderground v.1.15,2013-08-06 22:56:00,
2013-08-06 18:58:00,76.7,72.5,30.02,NNW,327,0.0,4.0,87,0.00,,,0.74,Wunderground v.1.15,2013-08-06 22:58:00,
2013-08-06 18:59:00,76.7,72.5,30.02,NNW,327,0.0,4.0,87,0.00,,,0.74,Wunderground v.1.15,2013-08-06 22:59:00,
2013-08-06 19:01:00,76.7,72.5,30.02,ENE,61,3.0,3.0,87,0.00,,,0.74,Wunderground v.1.15,2013-08-06 23:01:00,
2013-08-06 19:02:00,76.7,72.5,30.02,NNW,345,0.0,3.0,87,0.00,,,0.74,Wunderground v.1.15,2013-08-06 23:02:00,
2013-08-06 19:04:00,76.6,72.4,30.02,NNW,342,0.0,4.0,87,0.00,,,0.74,Wunderground v.1.15,2013-08-06 23:04:00,
2013-08-06 19:06:00,76.5,72.3,30.02,WNW,294,1.0,4.0,87,0.00,,,0.74,Wunderground v.1.15,2013-08-06 23:06:00,
2013-08-06 19:07:00,76.5,72.3,30.02,WNW,294,1.0,4.0,87,0.00,,,0.74,Wunderground v.1.15,2013-08-06 23:07:00,
2013-08-06 19:09:00,76.4,72.6,30.02,NW,305,0.0,4.0,88,0.00,,,0.74,Wunderground v.1.15,2013-08-06 23:09:00,
2013-08-06 19:11:00,76.4,72.6,30.02,North,1,0.0,1.0,88,0.00,,,0.74,Wunderground v.1.15,2013-08-06 23:11:00,
2013-08-06 19:12:00,76.4,72.6,30.02,North,5,0.0,1.0,88,0.00,,,0.74,Wunderground v.1.15,2013-08-06 23:12:00,
2013-08-06 19:14:00,76.3,72.8,30.02,North,359,1.0,1.0,89,0.00,,,0.74,Wunderground v.1.15,2013-08-06 23:14:00,
2013-08-06 19:16:00,76.3,72.8,30.02,NNW,347,1.0,2.0,89,0.00,,,0.74,Wunderground v.1.15,2013-08-06 23:16:00,
2013-08-06 19:17:00,76.3,72.8,30.02,East,84,2.0,2.0,89,0.00,,,0.74,Wunderground v.1.15,2013-08-06 23:17:00,
2013-08-06 19:19:00,76.3,73.1,30.02,NNW,335,1.0,3.0,90,0.00,,,0.74,Wunderground v.1.15,2013-08-06 23:19:00,
2013-08-06 19:21:00,76.2,73.1,30.03,North,6,1.0,2.0,90,0.00,,,0.74,Wunderground v.1.15,2013-08-06 23:21:00,
2013-08-06 19:22:00,76.2,73.1,30.03,NNW,337,1.0,2.0,90,0.00,,,0.74,Wunderground v.1.15,2013-08-06 23:22:00,
2013-08-06 19:24:00,76.2,73.1,30.02,WNW,296,1.0,6.0,90,0.00,,,0.74,Wunderground v.1.15,2013-08-06 23:24:00,
2013-08-06 19:25:00,76.1,73.0,30.02,WNW,297,0.0,6.0,90,0.00,,,0.74,Wunderground v.1.15,2013-08-06 23:25:00,
2013-08-06 19:27:00,76.1,73.3,30.02,NNW,346,2.0,6.0,91,0.00,,,0.74,Wunderground v.1.15,2013-08-06 23:27:00,
2013-08-06 19:29:00,76.1,73.3,30.02,NNW,347,1.0,6.0,91,0.00,,,0.74,Wunderground v.1.15,2013-08-06 23:29:00,
2013-08-06 19:30:00,76.1,73.3,30.02,NNE,25,1.0,2.0,91,0.00,,,0.74,Wunderground v.1.15,2013-08-06 23:30:00,
2013-08-06 19:32:00,76.1,73.3,30.02,NE,44,3.0,3.0,91,0.00,,,0.74,Wunderground v.1.15,2013-08-06 23:32:00,
2013-08-06 19:33:00,76.0,73.2,30.03,NE,44,0.0,3.0,91,0.00,,,0.74,Wunderground v.1.15,2013-08-06 23:33:00,
2013-08-06 19:34:00,76.0,73.2,30.03,North,357,2.0,3.0,91,0.00,,,0.74,Wunderground v.1.15,2013-08-06 23:34:00,
2013-08-06 19:35:00,76.0,73.2,30.03,North,353,2.0,3.0,91,0.00,,,0.74,Wunderground v.1.15,2013-08-06 23:35:00,
2013-08-06 19:37:00,76.0,73.2,30.03,South,177,0.0,3.0,91,0.00,,,0.74,Wunderground v.1.15,2013-08-06 23:37:00,
2013-08-06 19:38:00,76.0,73.2,30.03,South,177,0.0,3.0,91,0.00,,,0.74,Wunderground v.1.15,2013-08-06 23:38:00,
2013-08-06 19:40:00,76.0,73.5,30.03,South,187,3.0,3.0,92,0.00,,,0.74,Wunderground v.1.15,2013-08-06 23:40:00,
2013-08-06 19:41:00,76.1,73.6,30.03,NE,47,1.0,3.0,92,0.00,,,0.74,Wunderground v.1.15,2013-08-06 23:41:00,
2013-08-06 19:42:00,76.1,73.3,30.03,NNW,346,1.0,3.0,91,0.00,,,0.74,Wunderground v.1.15,2013-08-06 23:42:00,
2013-08-06 19:43:00,76.1,73.6,30.03,ENE,77,0.0,3.0,92,0.00,,,0.74,Wunderground v.1.15,2013-08-06 23:43:00,
2013-08-06 19:44:00,76.1,73.3,30.03,West,271,1.0,3.0,91,0.00,,,0.74,Wunderground v.1.15,2013-08-06 23:44:00,
2013-08-06 19:45:00,76.1,73.6,30.03,West,278,0.0,3.0,92,0.00,,,0.74,Wunderground v.1.15,2013-08-06 23:45:00,
2013-08-06 19:46:00,76.1,73.3,30.03,SSE,166,1.0,3.0,91,0.00,,,0.74,Wunderground v.1.15,2013-08-06 23:46:00,
2013-08-06 19:48:00,76.1,73.3,30.03,SSE,164,0.0,5.0,91,0.00,,,0.74,Wunderground v.1.15,2013-08-06 23:48:00,
2013-08-06 19:49:00,76.1,73.3,30.03,SSE,163,0.0,5.0,91,0.00,,,0.74,Wunderground v.1.15,2013-08-06 23:49:00,
2013-08-06 19:50:00,76.2,73.4,30.03,SSE,158,0.0,1.0,91,0.00,,,0.74,Wunderground v.1.15,2013-08-06 23:50:00,
2013-08-06 19:51:00,76.1,73.3,30.03,NNE,32,1.0,2.0,91,0.00,,,0.74,Wunderground v.1.15,2013-08-06 23:51:00,
2013-08-06 19:53:00,76.2,73.4,30.03,ENE,75,1.0,2.0,91,0.00,,,0.74,Wunderground v.1.15,2013-08-06 23:53:00,
2013-08-06 19:54:00,76.2,73.7,30.03,NE,41,2.0,2.0,92,0.00,,,0.74,Wunderground v.1.15,2013-08-06 23:54:00,
2013-08-06 19:55:00,76.2,73.7,30.03,NW,322,4.0,4.0,92,0.00,,,0.74,Wunderground v.1.15,2013-08-06 23:55:00,
2013-08-06 19:56:00,76.2,73.4,30.03,ENE,67,0.0,4.0,91,0.00,,,0.74,Wunderground v.1.15,2013-08-06 23:56:00,
2013-08-06 19:58:00,76.1,73.3,30.03,NNE,15,0.0,4.0,91,0.00,,,0.74,Wunderground v.1.15,2013-08-06 23:58:00,
2013-08-06 19:59:00,76.1,73.6,30.03,NE,50,0.0,4.0,92,0.00,,,0.74,Wunderground v.1.15,2013-08-06 23:59:00,
2013-08-06 20:00:00,76.1,73.6,30.04,NE,53,1.0,1.0,92,0.00,,,0.74,Wunderground v.1.15,2013-08-07 00:00:00,
2013-08-06 20:02:00,76.1,73.6,30.04,NNE,30,2.0,2.0,92,0.00,,,0.74,Wunderground v.1.15,2013-08-07 00:02:00,
2013-08-06 20:03:00,76.1,73.6,30.04,North,356,0.0,2.0,92,0.00,,,0.74,Wunderground v.1.15,2013-08-07 00:03:00,
2013-08-06 20:04:00,76.1,73.6,30.04,ESE,107,1.0,2.0,92,0.00,,,0.74,Wunderground v.1.15,2013-08-07 00:04:00,
2013-08-06 20:05:00,76.1,73.6,30.03,SW,229,2.0,3.0,92,0.00,,,0.74,Wunderground v.1.15,2013-08-07 00:05:00,
2013-08-06 20:07:00,76.1,73.6,30.03,West,276,2.0,5.0,92,0.00,,,0.74,Wunderground v.1.15,2013-08-07 00:07:00,
2013-08-06 20:08:00,76.1,73.6,30.03,WSW,250,0.0,5.0,92,0.00,,,0.74,Wunderground v.1.15,2013-08-07 00:08:00,
2013-08-06 20:09:00,76.0,73.5,30.04,WSW,245,3.0,5.0,92,0.00,,,0.74,Wunderground v.1.15,2013-08-07 00:09:00,
2013-08-06 20:10:00,76.0,73.5,30.03,ESE,123,1.0,2.0,92,0.00,,,0.74,Wunderground v.1.15,2013-08-07 00:10:00,
2013-08-06 20:12:00,76.0,73.5,30.03,NE,39,1.0,3.0,92,0.00,,,0.74,Wunderground v.1.15,2013-08-07 00:12:00,
2013-08-06 20:13:00,75.9,73.4,30.03,NE,39,0.0,3.0,92,0.00,,,0.74,Wunderground v.1.15,2013-08-07 00:13:00,
2013-08-06 20:14:00,75.9,73.4,30.03,NE,38,0.0,3.0,92,0.00,,,0.74,Wunderground v.1.15,2013-08-07 00:14:00,
2013-08-06 20:15:00,75.9,73.4,30.03,NE,38,0.0,3.0,92,0.00,,,0.74,Wunderground v.1.15,2013-08-07 00:15:00,
2013-08-06 20:17:00,75.9,73.4,30.04,NE,56,2.0,3.0,92,0.00,,,0.74,Wunderground v.1.15,2013-08-07 00:17:00,
2013-08-06 20:18:00,75.9,73.4,30.04,WSW,256,0.0,3.0,92,0.00,,,0.74,Wunderground v.1.15,2013-08-07 00:18:00,
2013-08-06 20:19:00,75.9,73.4,30.04,NNW,327,2.0,3.0,92,0.00,,,0.74,Wunderground v.1.15,2013-08-07 00:19:00,
2013-08-06 20:20:00,75.9,73.4,30.04,NE,46,0.0,1.0,92,0.00,,,0.74,Wunderground v.1.15,2013-08-07 00:20:00,
2013-08-06 20:21:00,75.9,73.4,30.04,NE,46,0.0,1.0,92,0.00,,,0.74,Wunderground v.1.15,2013-08-07 00:21:00,
2013-08-06 20:22:00,75.8,73.3,30.04,NW,318,2.0,2.0,92,0.00,,,0.74,Wunderground v.1.15,2013-08-07 00:22:00,
2013-08-06 20:23:00,75.8,73.3,30.04,NNE,18,0.0,2.0,92,0.00,,,0.74,Wunderground v.1.15,2013-08-07 00:23:00,
2013-08-06 20:24:00,75.8,73.3,30.04,NNE,17,0.0,2.0,92,0.00,,,0.74,Wunderground v.1.15,2013-08-07 00:24:00,
2013-08-06 20:25:00,75.8,73.3,30.04,NNE,17,1.0,2.0,92,0.00,,,0.74,Wunderground v.1.15,2013-08-07 00:25:00,
2013-08-06 20:26:00,75.8,73.3,30.04,WNW,302,1.0,2.0,92,0.00,,,0.74,Wunderground v.1.15,2013-08-07 00:26:00,
2013-08-06 20:27:00,75.7,73.2,30.04,NNE,22,1.0,2.0,92,0.00,,,0.74,Wunderground v.1.15,2013-08-07 00:27:00,
2013-08-06 20:28:00,75.7,73.2,30.04,SE,128,0.0,2.0,92,0.00,,,0.74,Wunderground v.1.15,2013-08-07 00:28:00,
2013-08-06 20:29:00,75.7,73.2,30.04,SSE,148,1.0,2.0,92,0.00,,,0.74,Wunderground v.1.15,2013-08-07 00:29:00,
2013-08-06 20:30:00,75.7,73.2,30.04,WSW,257,2.0,2.0,92,0.00,,,0.74,Wunderground v.1.15,2013-08-07 00:30:00,
2013-08-06 20:31:00,75.7,73.2,30.04,WSW,253,0.0,5.0,92,0.00,,,0.74,Wunderground v.1.15,2013-08-07 00:31:00,
2013-08-06 20:32:00,75.7,73.2,30.04,NE,49,1.0,5.0,92,0.00,,,0.74,Wunderground v.1.15,2013-08-07 00:32:00,
2013-08-06 20:33:00,75.7,73.2,30.04,North,353,1.0,5.0,92,0.00,,,0.74,Wunderground v.1.15,2013-08-07 00:33:00,
2013-08-06 20:34:00,75.6,73.1,30.04,East,81,1.0,5.0,92,0.00,,,0.74,Wunderground v.1.15,2013-08-07 00:34:00,
2013-08-06 20:35:00,75.6,73.1,30.04,ENE,70,2.0,5.0,92,0.00,,,0.74,Wunderground v.1.15,2013-08-07 00:35:00,
2013-08-06 20:37:00,75.6,73.4,30.05,ENE,67,1.0,5.0,93,0.00,,,0.74,Wunderground v.1.15,2013-08-07 00:37:00,
2013-08-06 20:38:00,75.6,73.4,30.05,ENE,66,0.0,5.0,93,0.00,,,0.74,Wunderground v.1.15,2013-08-07 00:38:00,
2013-08-06 20:40:00,75.6,73.4,30.05,North,6,1.0,5.0,93,0.00,,,0.74,Wunderground v.1.15,2013-08-07 00:40:00,
2013-08-06 20:42:00,75.5,73.3,30.05,NNW,330,0.0,5.0,93,0.00,,,0.74,Wunderground v.1.15,2013-08-07 00:42:00,
2013-08-06 20:43:00,75.5,73.3,30.05,NNW,330,0.0,5.0,93,0.00,,,0.74,Wunderground v.1.15,2013-08-07 00:43:00,
2013-08-06 20:44:00,75.5,73.3,30.05,NNW,330,1.0,5.0,93,0.00,,,0.74,Wunderground v.1.15,2013-08-07 00:44:00,
2013-08-06 20:45:00,75.5,73.3,30.05,North,356,2.0,5.0,93,0.00,,,0.74,Wunderground v.1.15,2013-08-07 00:45:00,
2013-08-06 20:47:00,75.5,73.3,30.05,ENE,75,1.0,5.0,93,0.00,,,0.74,Wunderground v.1.15,2013-08-07 00:47:00,
2013-08-06 20:48:00,75.4,73.2,30.05,WNW,297,0.0,5.0,93,0.00,,,0.74,Wunderground v.1.15,2013-08-07 00:48:00,
2013-08-06 20:49:00,75.5,73.3,30.05,WNW,300,0.0,5.0,93,0.00,,,0.74,Wunderground v.1.15,2013-08-07 00:49:00,
2013-08-06 20:50:00,75.4,73.2,30.05,West,276,0.0,1.0,93,0.00,,,0.74,Wunderground v.1.15,2013-08-07 00:50:00,
2013-08-06 20:52:00,75.3,73.1,30.05,NNW,348,4.0,4.0,93,0.00,,,0.74,Wunderground v.1.15,2013-08-07 00:52:00,
2013-08-06 20:54:00,75.2,73.0,30.05,NE,56,1.0,4.0,93,0.00,,,0.74,Wunderground v.1.15,2013-08-07 00:54:00,
2013-08-06 20:55:00,75.2,73.0,30.05,NNW,327,1.0,4.0,93,0.00,,,0.74,Wunderground v.1.15,2013-08-07 00:55:00,
2013-08-06 20:57:00,75.1,72.9,30.05,NE,44,2.0,4.0,93,0.00,,,0.74,Wunderground v.1.15,2013-08-07 00:57:00,
2013-08-06 20:59:00,75.0,72.8,30.05,SE,131,1.0,4.0,93,0.00,,,0.74,Wunderground v.1.15,2013-08-07 00:59:00,
2013-08-06 21:00:00,75.0,72.8,30.06,West,263,0.0,2.0,93,0.00,,,0.74,Wunderground v.1.15,2013-08-07 01:00:00,
2013-08-06 21:03:00,74.9,72.7,30.06,NNE,15,0.0,6.0,93,0.00,,,0.74,Wunderground v.1.15,2013-08-07 01:03:00,
2013-08-06 21:04:00,74.9,72.7,30.06,WNW,289,0.0,6.0,93,0.00,,,0.74,Wunderground v.1.15,2013-08-07 01:04:00,
2013-08-06 21:05:00,74.9,72.7,30.06,NW,305,0.0,6.0,93,0.00,,,0.74,Wunderground v.1.15,2013-08-07 01:05:00,
2013-08-06 21:08:00,74.8,72.6,30.06,ENE,77,0.0,6.0,93,0.00,,,0.74,Wunderground v.1.15,2013-08-07 01:08:00,
2013-08-06 21:09:00,74.8,72.6,30.06,North,352,5.0,6.0,93,0.00,,,0.74,Wunderground v.1.15,2013-08-07 01:09:00,
2013-08-06 21:10:00,74.8,72.6,30.06,NNW,335,0.0,1.0,93,0.00,,,0.74,Wunderground v.1.15,2013-08-07 01:10:00,
2013-08-06 21:13:00,74.7,72.5,30.06,North,356,0.0,3.0,93,0.00,,,0.74,Wunderground v.1.15,2013-08-07 01:13:00,
2013-08-06 21:14:00,74.7,72.5,30.06,North,356,0.0,3.0,93,0.00,,,0.74,Wunderground v.1.15,2013-08-07 01:14:00,
2013-08-06 21:15:00,74.7,72.5,30.06,North,351,0.0,3.0,93,0.00,,,0.74,Wunderground v.1.15,2013-08-07 01:15:00,
2013-08-06 21:18:00,74.6,72.4,30.07,NE,38,2.0,4.0,93,0.00,,,0.74,Wunderground v.1.15,2013-08-07 01:18:00,
2013-08-06 21:19:00,74.6,72.8,30.07,NNE,27,2.0,4.0,94,0.00,,,0.74,Wunderground v.1.15,2013-08-07 01:19:00,
2013-08-06 21:20:00,74.5,72.7,30.07,North,354,1.0,1.0,94,0.00,,,0.74,Wunderground v.1.15,2013-08-07 01:20:00,
2013-08-06 21:21:00,74.5,72.7,30.07,NE,44,2.0,2.0,94,0.00,,,0.74,Wunderground v.1.15,2013-08-07 01:21:00,
2013-08-06 21:24:00,74.4,72.6,30.07,NE,34,2.0,2.0,94,0.00,,,0.74,Wunderground v.1.15,2013-08-07 01:24:00,
2013-08-06 21:25:00,74.3,72.5,30.07,NE,34,0.0,2.0,94,0.00,,,0.74,Wunderground v.1.15,2013-08-07 01:25:00,
2013-08-06 21:26:00,74.3,72.5,30.07,NNW,342,2.0,2.0,94,0.00,,,0.74,Wunderground v.1.15,2013-08-07 01:26:00,
2013-08-06 21:29:00,74.2,72.4,30.06,West,260,1.0,2.0,94,0.00,,,0.75,Wunderground v.1.15,2013-08-07 01:29:00,
2013-08-06 21:30:00,74.2,72.4,30.06,West,262,1.0,3.0,94,0.00,,,0.75,Wunderground v.1.15,2013-08-07 01:30:00,
2013-08-06 21:31:00,74.2,72.4,30.06,West,262,1.0,3.0,94,0.00,,,0.75,Wunderground v.1.15,2013-08-07 01:31:00,
2013-08-06 21:32:00,74.1,72.3,30.06,ESE,120,0.0,3.0,94,0.00,,,0.75,Wunderground v.1.15,2013-08-07 01:32:00,
2013-08-06 21:34:00,74.1,72.6,30.06,East,94,2.0,3.0,95,0.00,,,0.75,Wunderground v.1.15,2013-08-07 01:34:00,
2013-08-06 21:36:00,74.0,72.2,30.06,ENE,68,2.0,4.0,94,0.00,,,0.75,Wunderground v.1.15,2013-08-07 01:36:00,
2013-08-06 21:37:00,74.0,72.5,30.06,North,354,1.0,4.0,95,0.00,,,0.75,Wunderground v.1.15,2013-08-07 01:37:00,
2013-08-06 21:39:00,73.9,72.4,30.06,NW,325,0.0,4.0,95,0.00,,,0.75,Wunderground v.1.15,2013-08-07 01:39:00,
2013-08-06 21:41:00,73.9,72.4,30.07,NNW,340,1.0,2.0,95,0.00,,,0.75,Wunderground v.1.15,2013-08-07 01:41:00,
2013-08-06 21:42:00,73.9,72.4,30.07,NNW,343,2.0,2.0,95,0.00,,,0.75,Wunderground v.1.15,2013-08-07 01:42:00,
2013-08-06 21:43:00,73.9,72.4,30.07,NNW,335,2.0,2.0,95,0.00,,,0.75,Wunderground v.1.15,2013-08-07 01:43:00,
2013-08-06 21:44:00,73.9,72.4,30.07,NNW,338,0.0,2.0,95,0.00,,,0.75,Wunderground v.1.15,2013-08-07 01:44:00,
2013-08-06 21:46:00,73.8,72.3,30.07,North,359,0.0,2.0,95,0.00,,,0.75,Wunderground v.1.15,2013-08-07 01:46:00,
2013-08-06 21:47:00,73.8,72.3,30.07,NNE,23,1.0,2.0,95,0.00,,,0.75,Wunderground v.1.15,2013-08-07 01:47:00,
2013-08-06 21:48:00,73.8,72.3,30.07,North,11,1.0,2.0,95,0.00,,,0.75,Wunderground v.1.15,2013-08-07 01:48:00,
2013-08-06 21:49:00,73.7,72.2,30.07,NW,307,0.0,2.0,95,0.00,,,0.75,Wunderground v.1.15,2013-08-07 01:49:00,
2013-08-06 21:51:00,73.7,72.2,30.07,WNW,302,0.0,1.0,95,0.00,,,0.75,Wunderground v.1.15,2013-08-07 01:51:00,
2013-08-06 21:52:00,73.7,72.2,30.07,WNW,302,0.0,1.0,95,0.00,,,0.75,Wunderground v.1.15,2013-08-07 01:52:00,
2013-08-06 21:53:00,73.7,72.2,30.08,WNW,302,0.0,1.0,95,0.00,,,0.75,Wunderground v.1.15,2013-08-07 01:53:00,
2013-08-06 21:55:00,73.7,72.2,30.08,NNW,347,0.0,2.0,95,0.00,,,0.75,Wunderground v.1.15,2013-08-07 01:55:00,
2013-08-06 21:56:00,73.7,72.2,30.08,NNW,348,1.0,2.0,95,0.00,,,0.75,Wunderground v.1.15,2013-08-07 01:56:00,
2013-08-06 21:57:00,73.7,72.2,30.08,NNW,348,0.0,2.0,95,0.00,,,0.75,Wunderground v.1.15,2013-08-07 01:57:00,
2013-08-06 21:58:00,73.7,72.2,30.08,North,354,1.0,2.0,95,0.00,,,0.75,Wunderground v.1.15,2013-08-07 01:58:00,
2013-08-06 22:00:00,73.7,72.2,30.08,North,354,1.0,1.0,95,0.00,,,0.75,Wunderground v.1.15,2013-08-07 02:00:00,
2013-08-06 22:01:00,73.7,72.2,30.08,North,354,1.0,1.0,95,0.00,,,0.75,Wunderground v.1.15,2013-08-07 02:01:00,
2013-08-06 22:02:00,73.7,72.2,30.08,NE,56,2.0,2.0,95,0.00,,,0.75,Wunderground v.1.15,2013-08-07 02:02:00,
2013-08-06 22:03:00,73.7,72.2,30.08,NNE,30,1.0,2.0,95,0.00,,,0.75,Wunderground v.1.15,2013-08-07 02:03:00,
2013-08-06 22:05:00,73.7,72.2,30.08,NNE,30,0.0,2.0,95,0.00,,,0.75,Wunderground v.1.15,2013-08-07 02:05:00,
2013-08-06 22:07:00,73.7,72.2,30.08,NW,322,0.0,2.0,95,0.00,,,0.75,Wunderground v.1.15,2013-08-07 02:07:00,
2013-08-06 22:08:00,73.6,72.1,30.08,NW,321,0.0,2.0,95,0.00,,,0.75,Wunderground v.1.15,2013-08-07 02:08:00,
2013-08-06 22:10:00,73.7,72.2,30.08,NW,322,0.0,0.0,95,0.00,,,0.75,Wunderground v.1.15,2013-08-07 02:10:00,
2013-08-06 22:12:00,73.6,72.1,30.08,NW,322,0.0,0.0,95,0.00,,,0.75,Wunderground v.1.15,2013-08-07 02:12:00,
2013-08-06 22:13:00,73.6,72.1,30.08,ESE,115,1.0,1.0,95,0.00,,,0.75,Wunderground v.1.15,2013-08-07 02:13:00,
2013-08-06 22:14:00,73.6,72.1,30.08,WSW,245,0.0,1.0,95,0.00,,,0.75,Wunderground v.1.15,2013-08-07 02:14:00,
2013-08-06 22:15:00,73.6,72.1,30.08,WSW,245,1.0,1.0,95,0.00,,,0.75,Wunderground v.1.15,2013-08-07 02:15:00,
2013-08-06 22:16:00,73.5,72.0,30.08,NE,41,0.0,1.0,95,0.00,,,0.75,Wunderground v.1.15,2013-08-07 02:16:00,
2013-08-06 22:17:00,73.6,72.1,30.08,ESE,104,1.0,1.0,95,0.00,,,0.75,Wunderground v.1.15,2013-08-07 02:17:00,
2013-08-06 22:18:00,73.6,72.1,30.09,North,351,1.0,1.0,95,0.00,,,0.75,Wunderground v.1.15,2013-08-07 02:18:00,
2013-08-06 22:19:00,73.5,72.0,30.09,North,8,1.0,2.0,95,0.00,,,0.75,Wunderground v.1.15,2013-08-07 02:19:00,
2013-08-06 22:20:00,73.5,72.0,30.09,NNE,30,1.0,1.0,95,0.00,,,0.75,Wunderground v.1.15,2013-08-07 02:20:00,
2013-08-06 22:21:00,73.5,72.0,30.09,North,360,0.0,2.0,95,0.00,,,0.75,Wunderground v.1.15,2013-08-07 02:21:00,
2013-08-06 22:22:00,73.5,72.0,30.09,East,100,1.0,2.0,95,0.00,,,0.75,Wunderground v.1.15,2013-08-07 02:22:00,
2013-08-06 22:23:00,73.5,72.0,30.09,NE,47,1.0,2.0,95,0.00,,,0.75,Wunderground v.1.15,2013-08-07 02:23:00,
2013-08-06 22:24:00,73.5,72.0,30.09,NE,47,0.0,2.0,95,0.00,,,0.75,Wunderground v.1.15,2013-08-07 02:24:00,
2013-08-06 22:25:00,73.5,72.0,30.09,NE,47,0.0,2.0,95,0.00,,,0.75,Wunderground v.1.15,2013-08-07 02:25:00,
2013-08-06 22:26:00,73.5,72.0,30.09,NE,47,0.0,2.0,95,0.00,,,0.75,Wunderground v.1.15,2013-08-07 02:26:00,
2013-08-06 22:27:00,73.5,72.0,30.09,East,91,0.0,2.0,95,0.00,,,0.75,Wunderground v.1.15,2013-08-07 02:27:00,
2013-08-06 22:28:00,73.5,72.0,30.09,East,92,0.0,2.0,95,0.00,,,0.75,Wunderground v.1.15,2013-08-07 02:28:00,
2013-08-06 22:30:00,73.5,72.0,30.09,NE,53,0.0,2.0,95,0.00,,,0.75,Wunderground v.1.15,2013-08-07 02:30:00,
2013-08-06 22:31:00,73.5,72.0,30.09,NE,53,0.0,1.0,95,0.00,,,0.75,Wunderground v.1.15,2013-08-07 02:31:00,
2013-08-06 22:32:00,73.5,72.0,30.09,NE,53,0.0,1.0,95,0.00,,,0.75,Wunderground v.1.15,2013-08-07 02:32:00,
2013-08-06 22:33:00,73.5,72.0,30.09,NNE,17,0.0,1.0,95,0.00,,,0.75,Wunderground v.1.15,2013-08-07 02:33:00,
2013-08-06 22:35:00,73.4,71.9,30.09,NE,46,0.0,1.0,95,0.00,,,0.75,Wunderground v.1.15,2013-08-07 02:35:00,
2013-08-06 22:36:00,73.4,71.9,30.09,NE,46,0.0,1.0,95,0.00,,,0.75,Wunderground v.1.15,2013-08-07 02:36:00,
2013-08-06 22:37:00,73.4,71.9,30.09,NE,45,0.0,1.0,95,0.00,,,0.75,Wunderground v.1.15,2013-08-07 02:37:00,
2013-08-06 22:38:00,73.4,71.9,30.09,NE,46,0.0,1.0,95,0.00,,,0.75,Wunderground v.1.15,2013-08-07 02:38:00,
2013-08-06 22:40:00,73.3,71.8,30.09,WNW,284,1.0,1.0,95,0.00,,,0.75,Wunderground v.1.15,2013-08-07 02:40:00,
2013-08-06 22:41:00,73.3,72.1,30.09,NNE,23,1.0,1.0,96,0.00,,,0.75,Wunderground v.1.15,2013-08-07 02:41:00,
2013-08-06 22:43:00,73.3,72.1,30.09,NNE,23,0.0,1.0,96,0.00,,,0.76,Wunderground v.1.15,2013-08-07 02:43:00,
2013-08-06 22:46:00,73.3,71.8,30.09,NNW,330,1.0,2.0,95,0.00,,,0.76,Wunderground v.1.15,2013-08-07 02:46:00,
2013-08-06 22:47:00,73.2,71.7,30.09,NNE,15,0.0,2.0,95,0.00,,,0.76,Wunderground v.1.15,2013-08-07 02:47:00,
2013-08-06 22:48:00,73.2,71.7,30.09,NNE,15,1.0,2.0,95,0.00,,,0.76,Wunderground v.1.15,2013-08-07 02:48:00,
2013-08-06 22:49:00,73.2,71.7,30.09,NNE,15,1.0,2.0,95,0.11,,,0.77,Wunderground v.1.15,2013-08-07 02:49:00,
2013-08-06 22:51:00,73.2,72.0,30.09,NNE,15,1.0,1.0,96,0.11,,,0.77,Wunderground v.1.15,2013-08-07 02:51:00,
2013-08-06 22:52:00,73.1,71.9,30.09,NNE,17,0.0,2.0,96,0.11,,,0.77,Wunderground v.1.15,2013-08-07 02:52:00,
2013-08-06 22:53:00,73.1,71.9,30.09,NNE,17,0.0,2.0,96,0.14,,,0.78,Wunderground v.1.15,2013-08-07 02:53:00,
2013-08-06 22:54:00,73.1,71.9,30.09,NNE,17,0.0,2.0,96,0.14,,,0.78,Wunderground v.1.15,2013-08-07 02:54:00,
2013-08-06 22:56:00,73.1,71.9,30.09,NNE,16,0.0,2.0,96,0.44,,,0.80,Wunderground v.1.15,2013-08-07 02:56:00,
2013-08-06 22:57:00,73.1,71.9,30.09,NNE,16,0.0,2.0,96,0.44,,,0.80,Wunderground v.1.15,2013-08-07 02:57:00,
2013-08-06 22:58:00,73.0,71.8,30.09,NNE,16,0.0,2.0,96,0.24,,,0.80,Wunderground v.1.15,2013-08-07 02:58:00,
2013-08-06 22:59:00,73.0,71.8,30.09,NNE,23,0.0,2.0,96,0.20,,,0.81,Wunderground v.1.15,2013-08-07 02:59:00,
2013-08-06 23:01:00,73.0,71.8,30.09,East,97,2.0,2.0,96,0.20,,,0.81,Wunderground v.1.15,2013-08-07 03:01:00,
2013-08-06 23:02:00,73.0,71.8,30.09,East,98,0.0,2.0,96,0.17,,,0.81,Wunderground v.1.15,2013-08-07 03:02:00,
2013-08-06 23:03:00,72.9,71.7,30.09,East,98,0.0,2.0,96,0.15,,,0.82,Wunderground v.1.15,2013-08-07 03:03:00,
2013-08-06 23:04:00,72.9,71.7,30.09,East,98,0.0,2.0,96,0.15,,,0.82,Wunderground v.1.15,2013-08-07 03:04:00,
2013-08-06 23:06:00,72.9,71.7,30.08,NNE,18,0.0,2.0,96,0.15,,,0.82,Wunderground v.1.15,2013-08-07 03:06:00,
2013-08-06 23:07:00,72.9,71.7,30.09,NNE,15,0.0,2.0,96,0.13,,,0.82,Wunderground v.1.15,2013-08-07 03:07:00,
2013-08-06 23:08:00,72.9,71.7,30.09,NNE,16,1.0,2.0,96,0.11,,,0.82,Wunderground v.1.15,2013-08-07 03:08:00,
2013-08-06 23:10:00,72.9,71.7,30.08,NNW,337,0.0,0.0,96,0.10,,,0.83,Wunderground v.1.15,2013-08-07 03:10:00,
2013-08-06 23:11:00,72.8,71.6,30.09,NNW,338,0.0,1.0,96,0.10,,,0.83,Wunderground v.1.15,2013-08-07 03:11:00,
2013-08-06 23:12:00,72.9,71.7,30.08,NNW,337,0.0,1.0,96,0.16,,,0.83,Wunderground v.1.15,2013-08-07 03:12:00,
2013-08-06 23:13:00,72.8,71.6,30.08,NNW,337,0.0,1.0,96,0.16,,,0.84,Wunderground v.1.15,2013-08-07 03:13:00,
2013-08-06 23:15:00,72.8,71.6,30.09,NNW,337,0.0,1.0,96,0.16,,,0.84,Wunderground v.1.15,2013-08-07 03:15:00,
2013-08-06 23:17:00,72.8,71.6,30.09,NNW,337,0.0,1.0,96,0.15,,,0.85,Wunderground v.1.15,2013-08-07 03:17:00,
2013-08-06 23:18:00,72.8,71.6,30.09,NNW,337,0.0,1.0,96,0.15,,,0.85,Wunderground v.1.15,2013-08-07 03:18:00,
2013-08-06 23:19:00,72.8,71.6,30.09,NNW,337,0.0,1.0,96,0.15,,,0.85,Wunderground v.1.15,2013-08-07 03:19:00,
2013-08-06 23:20:00,72.8,71.6,30.09,NNW,337,0.0,0.0,96,0.22,,,0.86,Wunderground v.1.15,2013-08-07 03:20:00,
2013-08-06 23:22:00,72.8,71.6,30.09,NNW,337,0.0,0.0,96,0.24,,,0.87,Wunderground v.1.15,2013-08-07 03:22:00,
2013-08-06 23:23:00,72.8,71.6,30.09,NNW,338,0.0,0.0,96,0.24,,,0.87,Wunderground v.1.15,2013-08-07 03:23:00,
2013-08-06 23:24:00,72.8,71.6,30.08,NNW,337,1.0,1.0,96,0.24,,,0.87,Wunderground v.1.15,2013-08-07 03:24:00,
2013-08-06 23:25:00,72.8,71.9,30.08,NNE,18,0.0,1.0,97,0.19,,,0.88,Wunderground v.1.15,2013-08-07 03:25:00,
2013-08-06 23:27:00,72.8,71.9,30.08,NNE,17,0.0,1.0,97,0.19,,,0.88,Wunderground v.1.15,2013-08-07 03:27:00,
2013-08-06 23:28:00,72.8,71.9,30.08,NNE,17,0.0,1.0,97,0.18,,,0.88,Wunderground v.1.15,2013-08-07 03:28:00,
2013-08-06 23:29:00,72.8,71.9,30.08,NNE,17,0.0,1.0,97,0.14,,,0.88,Wunderground v.1.15,2013-08-07 03:29:00,
2013-08-06 23:31:00,72.7,71.8,30.09,NNE,17,0.0,0.0,97,0.10,,,0.89,Wunderground v.1.15,2013-08-07 03:31:00,
2013-08-06 23:32:00,72.7,71.8,30.08,NNE,17,1.0,1.0,97,0.10,,,0.89,Wunderground v.1.15,2013-08-07 03:32:00,
2013-08-06 23:33:00,72.7,71.8,30.09,NE,41,1.0,1.0,97,0.10,,,0.89,Wunderground v.1.15,2013-08-07 03:33:00,
2013-08-06 23:34:00,72.7,71.8,30.09,NE,44,0.0,1.0,97,0.18,,,0.90,Wunderground v.1.15,2013-08-07 03:34:00,
2013-08-06 23:36:00,72.6,71.7,30.09,NE,50,1.0,1.0,97,0.33,,,0.91,Wunderground v.1.15,2013-08-07 03:36:00,
2013-08-06 23:37:00,72.6,71.7,30.09,NE,49,0.0,1.0,97,0.33,,,0.91,Wunderground v.1.15,2013-08-07 03:37:00,
2013-08-06 23:38:00,72.6,71.7,30.08,NE,49,0.0,1.0,97,0.30,,,0.92,Wunderground v.1.15,2013-08-07 03:38:00,
2013-08-06 23:39:00,72.6,71.7,30.09,NE,50,0.0,1.0,97,0.30,,,0.92,Wunderground v.1.15,2013-08-07 03:39:00,
2013-08-06 23:41:00,72.6,71.7,30.08,NE,50,0.0,0.0,97,0.27,,,0.93,Wunderground v.1.15,2013-08-07 03:41:00,
2013-08-06 23:42:00,72.6,71.7,30.08,NE,49,0.0,0.0,97,0.27,,,0.93,Wunderground v.1.15,2013-08-07 03:42:00,
2013-08-06 23:43:00,72.6,71.7,30.08,NE,50,0.0,0.0,97,0.24,,,0.94,Wunderground v.1.15,2013-08-07 03:43:00,
2013-08-06 23:44:00,72.6,71.7,30.08,NE,50,0.0,1.0,97,0.32,,,0.94,Wunderground v.1.15,2013-08-07 03:44:00,
2013-08-06 23:46:00,72.5,71.6,30.08,NE,50,0.0,1.0,97,0.32,,,0.95,Wunderground v.1.15,2013-08-07 03:46:00,
2013-08-06 23:47:00,72.5,71.6,30.08,NE,50,0.0,1.0,97,0.32,,,0.96,Wunderground v.1.15,2013-08-07 03:47:00,
2013-08-06 23:48:00,72.5,71.6,30.08,NE,49,0.0,1.0,97,0.32,,,0.97,Wunderground v.1.15,2013-08-07 03:48:00,
2013-08-06 23:49:00,72.5,71.6,30.08,NE,49,0.0,1.0,97,0.32,,,0.97,Wunderground v.1.15,2013-08-07 03:49:00,
2013-08-06 23:51:00,72.5,71.6,30.08,NE,50,0.0,1.0,97,0.32,,,0.98,Wunderground v.1.15,2013-08-07 03:51:00,
2013-08-06 23:52:00,72.5,71.6,30.08,NE,50,0.0,1.0,97,0.27,,,0.98,Wunderground v.1.15,2013-08-07 03:52:00,
2013-08-06 23:53:00,72.5,71.6,30.08,NE,50,0.0,1.0,97,0.24,,,0.99,Wunderground v.1.15,2013-08-07 03:53:00,
2013-08-06 23:54:00,72.5,71.6,30.08,NE,50,0.0,1.0,97,0.24,,,0.99,Wunderground v.1.15,2013-08-07 03:54:00,
2013-08-06 23:56:00,72.5,71.6,30.08,NE,50,0.0,1.0,97,0.18,,,1.00,Wunderground v.1.15,2013-08-07 03:56:00,
2013-08-06 23:57:00,72.5,71.6,30.08,NE,49,0.0,1.0,97,0.18,,,1.00,Wunderground v.1.15,2013-08-07 03:57:00,
2013-08-06 23:58:00,72.5,71.6,30.08,NE,50,0.0,1.0,97,0.18,,,1.00,Wunderground v.1.15,2013-08-07 03:58:00,